| time (UTC) | temp F | wind direction | speed MPH | gust MPH | rain 1hr in | rain 24hr in | rain mn in | humidity % | barometer mb |
| 20260906184704 | 92 | 2 | 1.0 | 4.0 | 0.00 | 0.07 | 0.01 | 62 | 1010.0 |
| 20260906184603 | 92 | 4 | 1.0 | 4.0 | 0.00 | 0.07 | 0.01 | 62 | 1010.0 |
| 20260906184504 | 92 | 359 | 1.0 | 4.0 | 0.00 | 0.07 | 0.01 | 62 | 1010.0 |
| 20260906184404 | 92 | 358 | 1.0 | 6.0 | 0.00 | 0.07 | 0.01 | 62 | 1010.0 |
| 20260906184303 | 92 | 356 | 1.0 | 6.0 | 0.00 | 0.07 | 0.01 | 61 | 1010.0 |
| 20260906184204 | 93 | 354 | 1.0 | 6.0 | 0.00 | 0.07 | 0.01 | 62 | 1010.0 |
| 20260906184103 | 93 | 358 | 1.0 | 6.0 | 0.00 | 0.07 | 0.01 | 61 | 1010.0 |
| 20260906184003 | 93 | 4 | 1.0 | 6.0 | 0.00 | 0.07 | 0.01 | 61 | 1010.0 |
| 20260906183919 | 93 | 10 | 1.0 | 6.0 | 0.00 | 0.07 | 0.01 | 61 | 1009.9 |
| 20260906183903 | 93 | 11 | 1.0 | 6.0 | 0.00 | 0.07 | 0.01 | 61 | 1009.9 |
| 20260906183803 | 93 | 13 | 1.0 | 6.0 | 0.00 | 0.07 | 0.01 | 61 | 1010.0 |
| 20260906183603 | 94 | 16 | 1.0 | 6.0 | 0.00 | 0.07 | 0.01 | 62 | 1010.0 |
| 20260906183504 | 94 | 19 | 1.0 | 6.0 | 0.00 | 0.07 | 0.01 | 63 | 1010.0 |
| 20260906183418 | 94 | 21 | 1.0 | 6.0 | 0.00 | 0.07 | 0.01 | 63 | 1009.9 |
| 20260906183403 | 94 | 24 | 1.0 | 3.0 | 0.00 | 0.07 | 0.01 | 63 | 1009.9 |
| 20260906183303 | 93 | 29 | 1.0 | 3.0 | 0.00 | 0.07 | 0.01 | 63 | 1009.9 |
| 20260906183103 | 93 | 27 | 2.0 | 6.0 | 0.00 | 0.07 | 0.01 | 64 | 1009.9 |
| 20260906183003 | 93 | 34 | 2.0 | 6.0 | 0.00 | 0.07 | 0.01 | 65 | 1009.9 |
| 20260906182904 | 93 | 28 | 2.0 | 6.0 | 0.00 | 0.07 | 0.01 | 64 | 1010.0 |
| 20260906182804 | 93 | 26 | 2.0 | 6.0 | 0.00 | 0.07 | 0.01 | 63 | 1010.1 |
| 20260906182703 | 93 | 24 | 2.0 | 6.0 | 0.00 | 0.07 | 0.01 | 64 | 1010.1 |
| 20260906182504 | 93 | 26 | 2.0 | 6.0 | 0.00 | 0.07 | 0.01 | 62 | 1010.1 |
| 20260906182403 | 93 | 22 | 2.0 | 6.0 | 0.00 | 0.07 | 0.01 | 62 | 1010.1 |
| 20260906182306 | 94 | 17 | 2.0 | 6.0 | 0.00 | 0.07 | 0.01 | 60 | 1010.1 |
| 20260906182203 | 94 | 14 | 2.0 | 6.0 | 0.00 | 0.07 | 0.01 | 61 | 1010.1 |
| 20260906182118 | 95 | 13 | 2.0 | 5.0 | 0.00 | 0.07 | 0.01 | 60 | 1010.1 |
| 20260906182103 | 95 | 11 | 2.0 | 5.0 | 0.00 | 0.07 | 0.01 | 60 | 1010.1 |
| 20260906182003 | 96 | 356 | 2.0 | 5.0 | 0.00 | 0.07 | 0.01 | 59 | 1010.2 |
| 20260906181818 | 95 | 344 | 1.0 | 4.0 | 0.00 | 0.07 | 0.01 | 60 | 1010.1 |
| 20260906181803 | 95 | 335 | 1.0 | 4.0 | 0.00 | 0.07 | 0.01 | 60 | 1010.1 |
| 20260906181718 | 95 | 311 | 1.0 | 4.0 | 0.00 | 0.07 | 0.01 | 60 | 1010.1 |
| 20260906181704 | 95 | 308 | 1.0 | 4.0 | 0.00 | 0.07 | 0.01 | 60 | 1010.1 |
| 20260906181403 | 94 | 222 | 1.0 | 4.0 | 0.00 | 0.07 | 0.01 | 61 | 1010.1 |
| 20260906181304 | 94 | 207 | 1.0 | 4.0 | 0.00 | 0.07 | 0.01 | 62 | 1010.1 |
| 20260906181204 | 94 | 202 | 1.0 | 3.0 | 0.00 | 0.07 | 0.01 | 59 | 1010.1 |
| 20260906181103 | 95 | 200 | 1.0 | 3.0 | 0.00 | 0.07 | 0.01 | 59 | 1010.1 |
| 20260906181003 | 95 | 199 | 1.0 | 3.0 | 0.00 | 0.07 | 0.01 | 60 | 1010.1 |
| 20260906180903 | 94 | 200 | 1.0 | 3.0 | 0.00 | 0.07 | 0.01 | 60 | 1010.1 |
| 20260906180804 | 94 | 192 | 1.0 | 5.0 | 0.00 | 0.07 | 0.01 | 60 | 1010.1 |
| 20260906180703 | 94 | 117 | 1.0 | 5.0 | 0.00 | 0.07 | 0.01 | 58 | 1010.2 |
| 20260906180604 | 95 | 47 | 1.0 | 5.0 | 0.00 | 0.07 | 0.01 | 60 | 1010.2 |
| 20260906180504 | 94 | 45 | 1.0 | 5.0 | 0.00 | 0.07 | 0.01 | 61 | 1010.2 |
| 20260906180418 | 94 | 31 | 2.0 | 5.0 | 0.00 | 0.07 | 0.01 | 59 | 1010.2 |
| 20260906180403 | 94 | 23 | 2.0 | 5.0 | 0.00 | 0.07 | 0.01 | 59 | 1010.2 |
| 20260906180303 | 94 | 17 | 2.0 | 5.0 | 0.00 | 0.07 | 0.01 | 60 | 1010.3 |
| 20260906180104 | 95 | 19 | 2.0 | 5.0 | 0.00 | 0.07 | 0.01 | 61 | 1010.4 |
| 20260906180018 | 95 | 23 | 2.0 | 5.0 | 0.00 | 0.07 | 0.01 | 60 | 1010.3 |
| 20260906180003 | 95 | 24 | 2.0 | 5.0 | 0.00 | 0.07 | 0.01 | 60 | 1010.3 |
| 20260906175917 | 95 | 27 | 2.0 | 5.0 | 0.00 | 0.07 | 0.01 | 60 | 1010.3 |
| 20260906175903 | 95 | 28 | 2.0 | 5.0 | 0.00 | 0.07 | 0.01 | 60 | 1010.3 |
| 20260906175603 | 95 | 355 | 1.0 | 3.0 | 0.00 | 0.07 | 0.01 | 61 | 1010.3 |
| 20260906175517 | 95 | 339 | 2.0 | 3.0 | 0.00 | 0.07 | 0.01 | 61 | 1010.3 |
| 20260906175503 | 95 | 335 | 2.0 | 3.0 | 0.00 | 0.07 | 0.01 | 61 | 1010.3 |
| 20260906175403 | 95 | 337 | 1.0 | 4.0 | 0.00 | 0.07 | 0.01 | 60 | 1010.4 |
| 20260906175203 | 95 | 2 | 2.0 | 5.0 | 0.00 | 0.07 | 0.01 | 61 | 1010.4 |
| 20260906175103 | 95 | 353 | 2.0 | 5.0 | 0.00 | 0.07 | 0.01 | 59 | 1010.4 |
| 20260906175004 | 95 | 335 | 2.0 | 5.0 | 0.00 | 0.07 | 0.01 | 59 | 1010.5 |
| 20260906174903 | 95 | 333 | 2.0 | 5.0 | 0.00 | 0.07 | 0.01 | 60 | 1010.5 |
| 20260906174803 | 95 | 348 | 2.0 | 5.0 | 0.00 | 0.07 | 0.01 | 61 | 1010.5 |
| 20260906174703 | 95 | 355 | 2.0 | 5.0 | 0.00 | 0.07 | 0.01 | 61 | 1010.5 |
| 20260906174603 | 94 | 3 | 2.0 | 5.0 | 0.00 | 0.07 | 0.01 | 62 | 1010.5 |
| 20260906174503 | 94 | 15 | 2.0 | 5.0 | 0.00 | 0.07 | 0.01 | 62 | 1010.5 |
| 20260906174404 | 94 | 29 | 2.0 | 5.0 | 0.00 | 0.07 | 0.01 | 61 | 1010.6 |
| 20260906174303 | 94 | 27 | 2.0 | 5.0 | 0.00 | 0.07 | 0.01 | 61 | 1010.6 |
| 20260906174204 | 94 | 34 | 2.0 | 5.0 | 0.00 | 0.07 | 0.01 | 62 | 1010.6 |
| 20260906174103 | 94 | 51 | 2.0 | 5.0 | 0.00 | 0.07 | 0.01 | 62 | 1010.6 |
| 20260906174003 | 94 | 52 | 2.0 | 5.0 | 0.00 | 0.07 | 0.01 | 62 | 1010.6 |
| 20260906173903 | 94 | 42 | 2.0 | 5.0 | 0.00 | 0.07 | 0.01 | 60 | 1010.7 |
| 20260906173803 | 94 | 44 | 2.0 | 7.0 | 0.00 | 0.07 | 0.01 | 63 | 1010.7 |
| 20260906173703 | 94 | 45 | 2.0 | 7.0 | 0.00 | 0.07 | 0.01 | 63 | 1010.7 |
| 20260906173603 | 94 | 39 | 2.0 | 7.0 | 0.00 | 0.07 | 0.01 | 61 | 1010.7 |
| 20260906173503 | 94 | 36 | 2.0 | 7.0 | 0.00 | 0.07 | 0.01 | 61 | 1010.7 |
| 20260906173418 | 94 | 26 | 2.0 | 7.0 | 0.00 | 0.07 | 0.01 | 62 | 1010.7 |
| 20260906173403 | 94 | 24 | 2.0 | 7.0 | 0.00 | 0.07 | 0.01 | 62 | 1010.7 |
| 20260906173303 | 94 | 17 | 2.0 | 7.0 | 0.00 | 0.07 | 0.01 | 62 | 1010.7 |
| 20260906173103 | 94 | 10 | 2.0 | 7.0 | 0.00 | 0.07 | 0.01 | 63 | 1010.8 |
| 20260906173003 | 94 | 1 | 2.0 | 7.0 | 0.00 | 0.07 | 0.01 | 64 | 1010.8 |
| 20260906172904 | 94 | 358 | 2.0 | 7.0 | 0.00 | 0.07 | 0.01 | 63 | 1010.8 |
| 20260906172804 | 94 | 350 | 2.0 | 7.0 | 0.00 | 0.07 | 0.01 | 63 | 1010.8 |
| 20260906172718 | 94 | 350 | 2.0 | 6.0 | 0.00 | 0.07 | 0.01 | 64 | 1010.8 |
| 20260906172704 | 94 | 351 | 2.0 | 6.0 | 0.00 | 0.07 | 0.01 | 64 | 1010.8 |
| 20260906172603 | 93 | 348 | 2.0 | 6.0 | 0.00 | 0.07 | 0.01 | 64 | 1010.8 |
| 20260906172517 | 93 | 342 | 2.0 | 6.0 | 0.00 | 0.07 | 0.01 | 63 | 1010.8 |
| 20260906172403 | 93 | 326 | 2.0 | 6.0 | 0.00 | 0.07 | 0.01 | 63 | 1010.8 |
| 20260906172203 | 93 | 320 | 2.0 | 6.0 | 0.00 | 0.07 | 0.01 | 63 | 1010.8 |
| 20260906172104 | 93 | 317 | 2.0 | 6.0 | 0.00 | 0.07 | 0.01 | 63 | 1010.8 |
| 20260906172004 | 93 | 317 | 2.0 | 6.0 | 0.00 | 0.07 | 0.01 | 63 | 1010.8 |
| 20260906171903 | 93 | 312 | 2.0 | 6.0 | 0.00 | 0.07 | 0.01 | 63 | 1010.9 |
| 20260906171819 | 93 | 311 | 2.0 | 6.0 | 0.00 | 0.07 | 0.01 | 63 | 1010.9 |
| 20260906171803 | 93 | 310 | 2.0 | 6.0 | 0.00 | 0.07 | 0.01 | 63 | 1010.8 |
| 20260906171703 | 93 | 296 | 2.0 | 6.0 | 0.00 | 0.07 | 0.01 | 64 | 1010.8 |
| 20260906171616 | 93 | 281 | 2.0 | 6.0 | 0.00 | 0.07 | 0.01 | 63 | 1010.8 |
| 20260906171503 | 93 | 275 | 2.0 | 6.0 | 0.00 | 0.07 | 0.01 | 62 | 1010.8 |
| 20260906171303 | 93 | 255 | 2.0 | 4.0 | 0.00 | 0.07 | 0.01 | 64 | 1010.8 |
| 20260906171204 | 93 | 255 | 2.0 | 4.0 | 0.00 | 0.07 | 0.01 | 64 | 1010.8 |
| 20260906171104 | 93 | 255 | 2.0 | 4.0 | 0.00 | 0.07 | 0.01 | 64 | 1010.8 |
| 20260906171003 | 93 | 258 | 2.0 | 4.0 | 0.00 | 0.07 | 0.01 | 63 | 1010.8 |
| 20260906170918 | 93 | 269 | 2.0 | 4.0 | 0.00 | 0.07 | 0.01 | 64 | 1010.9 |
| 20260906170903 | 93 | 272 | 2.0 | 4.0 | 0.00 | 0.07 | 0.01 | 64 | 1010.9 |
| 20260906170804 | 93 | 271 | 1.0 | 4.0 | 0.00 | 0.07 | 0.01 | 63 | 1010.9 |
| 20260906170604 | 93 | 288 | 1.0 | 4.0 | 0.00 | 0.07 | 0.01 | 64 | 1010.9 |
| 20260906170503 | 93 | 289 | 1.0 | 4.0 | 0.00 | 0.07 | 0.01 | 65 | 1011.0 |
| 20260906170403 | 93 | 283 | 1.0 | 4.0 | 0.00 | 0.07 | 0.01 | 66 | 1011.0 |
| 20260906170303 | 93 | 278 | 1.0 | 4.0 | 0.00 | 0.07 | 0.01 | 64 | 1011.0 |
| 20260906170203 | 93 | 281 | 1.0 | 4.0 | 0.00 | 0.07 | 0.01 | 65 | 1011.0 |
| 20260906170103 | 93 | 284 | 1.0 | 4.0 | 0.00 | 0.07 | 0.01 | 65 | 1010.9 |
| 20260906170018 | 93 | 295 | 1.0 | 4.0 | 0.00 | 0.07 | 0.01 | 67 | 1010.9 |
| 20260906170004 | 93 | 297 | 1.0 | 4.0 | 0.00 | 0.07 | 0.01 | 67 | 1011.0 |
| 20260906165903 | 93 | 296 | 1.0 | 3.0 | 0.00 | 0.07 | 0.01 | 67 | 1011.0 |
| 20260906165704 | 92 | 306 | 1.0 | 3.0 | 0.00 | 0.07 | 0.01 | 65 | 1011.0 |
| 20260906165604 | 92 | 317 | 1.0 | 3.0 | 0.00 | 0.07 | 0.01 | 66 | 1011.0 |
| 20260906165504 | 92 | 331 | 1.0 | 3.0 | 0.00 | 0.07 | 0.01 | 66 | 1011.0 |
| 20260906165417 | 92 | 339 | 1.0 | 3.0 | 0.00 | 0.07 | 0.01 | 66 | 1011.0 |
| 20260906165404 | 92 | 340 | 1.0 | 3.0 | 0.00 | 0.07 | 0.01 | 66 | 1011.0 |
| 20260906165306 | 92 | 353 | 1.0 | 3.0 | 0.00 | 0.07 | 0.01 | 67 | 1011.0 |
| 20260906165103 | 92 | 10 | 1.0 | 3.0 | 0.00 | 0.07 | 0.01 | 66 | 1011.0 |
| 20260906165018 | 92 | 13 | 1.0 | 3.0 | 0.00 | 0.07 | 0.01 | 66 | 1011.1 |
| 20260906165003 | 92 | 14 | 1.0 | 3.0 | 0.00 | 0.07 | 0.01 | 66 | 1011.1 |
| 20260906164904 | 92 | 22 | 1.0 | 3.0 | 0.00 | 0.07 | 0.01 | 65 | 1011.1 |
| 20260906164704 | 92 | 55 | 1.0 | 3.0 | 0.00 | 0.07 | 0.01 | 68 | 1011.0 |
| 20260906164603 | 92 | 62 | 1.0 | 3.0 | 0.00 | 0.07 | 0.01 | 66 | 1011.1 |
| 20260906164504 | 92 | 64 | 1.0 | 3.0 | 0.00 | 0.07 | 0.01 | 67 | 1011.1 |
| 20260906164403 | 92 | 64 | 1.0 | 3.0 | 0.00 | 0.07 | 0.01 | 67 | 1011.1 |
| 20260906164318 | 92 | 75 | 1.0 | 3.0 | 0.00 | 0.07 | 0.01 | 66 | 1011.1 |
| 20260906164303 | 92 | 78 | 1.0 | 3.0 | 0.00 | 0.07 | 0.01 | 66 | 1011.1 |
| 20260906164219 | 91 | 86 | 1.0 | 3.0 | 0.00 | 0.07 | 0.01 | 67 | 1011.1 |
| 20260906164203 | 91 | 88 | 1.0 | 3.0 | 0.00 | 0.07 | 0.01 | 67 | 1011.1 |
| 20260906164018 | 91 | 118 | 1.0 | 3.0 | 0.00 | 0.07 | 0.01 | 67 | 1011.3 |
| 20260906163903 | 91 | 128 | 1.0 | 3.0 | 0.00 | 0.07 | 0.01 | 68 | 1011.3 |
| 20260906163717 | 91 | 144 | 1.0 | 3.0 | 0.00 | 0.07 | 0.01 | 69 | 1011.3 |
| 20260906163703 | 91 | 149 | 1.0 | 3.0 | 0.00 | 0.07 | 0.01 | 69 | 1011.2 |
| 20260906163604 | 91 | 156 | 1.0 | 3.0 | 0.00 | 0.07 | 0.01 | 69 | 1011.2 |
| 20260906163517 | 91 | 156 | 1.0 | 3.0 | 0.00 | 0.07 | 0.01 | 68 | 1011.2 |
| 20260906163403 | 90 | 154 | 1.0 | 3.0 | 0.00 | 0.07 | 0.01 | 66 | 1011.2 |
| 20260906163203 | 90 | 174 | 1.0 | 3.0 | 0.00 | 0.07 | 0.01 | 67 | 1011.3 |
| 20260906163117 | 90 | 183 | 1.0 | 3.0 | 0.00 | 0.07 | 0.01 | 67 | 1011.3 |
| 20260906163104 | 90 | 187 | 1.0 | 3.0 | 0.00 | 0.07 | 0.01 | 67 | 1011.3 |
| 20260906163004 | 90 | 254 | 1.0 | 5.0 | 0.00 | 0.07 | 0.01 | 68 | 1011.4 |
| 20260906162803 | 90 | 296 | 1.0 | 5.0 | 0.00 | 0.07 | 0.01 | 69 | 1011.5 |
| 20260906162703 | 90 | 307 | 1.0 | 5.0 | 0.00 | 0.07 | 0.01 | 69 | 1011.5 |
| 20260906162603 | 90 | 311 | 1.0 | 5.0 | 0.00 | 0.07 | 0.01 | 68 | 1011.5 |
| 20260906162503 | 90 | 316 | 1.0 | 5.0 | 0.00 | 0.07 | 0.01 | 68 | 1011.4 |
| 20260906162403 | 90 | 319 | 1.0 | 5.0 | 0.00 | 0.07 | 0.01 | 69 | 1011.5 |
| 20260906162318 | 90 | 333 | 1.0 | 5.0 | 0.00 | 0.07 | 0.01 | 69 | 1011.5 |
| 20260906162306 | 90 | 335 | 1.0 | 5.0 | 0.00 | 0.07 | 0.01 | 69 | 1011.5 |
| 20260906162203 | 90 | 341 | 1.0 | 7.0 | 0.00 | 0.07 | 0.01 | 68 | 1011.5 |
| 20260906162003 | 90 | 340 | 1.0 | 7.0 | 0.00 | 0.07 | 0.01 | 70 | 1011.5 |
| 20260906161903 | 90 | 337 | 2.0 | 7.0 | 0.00 | 0.07 | 0.01 | 69 | 1011.5 |
| 20260906161803 | 89 | 338 | 2.0 | 7.0 | 0.00 | 0.07 | 0.01 | 68 | 1011.5 |
| 20260906161603 | 89 | 1 | 2.0 | 7.0 | 0.00 | 0.07 | 0.01 | 72 | 1011.5 |
| 20260906161503 | 89 | 359 | 2.0 | 7.0 | 0.00 | 0.07 | 0.01 | 70 | 1011.5 |
| 20260906161403 | 89 | 357 | 2.0 | 7.0 | 0.00 | 0.07 | 0.01 | 70 | 1011.5 |
| 20260906161304 | 89 | 353 | 1.0 | 7.0 | 0.00 | 0.07 | 0.01 | 69 | 1011.5 |
| 20260906161203 | 89 | 356 | 2.0 | 6.0 | 0.00 | 0.07 | 0.01 | 69 | 1011.5 |
| 20260906161103 | 89 | 9 | 2.0 | 4.0 | 0.00 | 0.07 | 0.01 | 70 | 1011.5 |
| 20260906161003 | 89 | 16 | 2.0 | 4.0 | 0.00 | 0.07 | 0.01 | 71 | 1011.5 |
| 20260906160904 | 89 | 20 | 2.0 | 4.0 | 0.00 | 0.07 | 0.01 | 72 | 1011.5 |
| 20260906160803 | 89 | 10 | 2.0 | 5.0 | 0.00 | 0.07 | 0.01 | 70 | 1011.5 |
| 20260906160703 | 89 | 360 | 2.0 | 5.0 | 0.00 | 0.07 | 0.01 | 71 | 1011.5 |
| 20260906160603 | 89 | 332 | 1.0 | 5.0 | 0.00 | 0.07 | 0.01 | 72 | 1011.4 |
| 20260906160504 | 88 | 331 | 1.0 | 5.0 | 0.00 | 0.07 | 0.01 | 71 | 1011.4 |
| 20260906160404 | 88 | 333 | 1.0 | 5.0 | 0.00 | 0.07 | 0.01 | 71 | 1011.4 |
| 20260906160304 | 88 | 341 | 1.0 | 5.0 | 0.00 | 0.07 | 0.01 | 70 | 1011.4 |
| 20260906160203 | 88 | 352 | 1.0 | 5.0 | 0.00 | 0.07 | 0.01 | 71 | 1011.4 |
| 20260906160103 | 88 | 319 | 1.0 | 5.0 | 0.00 | 0.07 | 0.01 | 70 | 1011.4 |
| 20260906160017 | 88 | 315 | 1.0 | 5.0 | 0.00 | 0.07 | 0.01 | 71 | 1011.4 |
| 20260906160003 | 88 | 320 | 1.0 | 5.0 | 0.00 | 0.07 | 0.01 | 71 | 1011.4 |
| 20260906155903 | 88 | 351 | 2.0 | 5.0 | 0.00 | 0.07 | 0.01 | 73 | 1011.3 |
| 20260906155703 | 88 | 32 | 2.0 | 5.0 | 0.00 | 0.07 | 0.01 | 72 | 1011.3 |
| 20260906155604 | 88 | 47 | 2.0 | 5.0 | 0.00 | 0.07 | 0.01 | 71 | 1011.3 |
| 20260906155504 | 88 | 39 | 2.0 | 5.0 | 0.00 | 0.07 | 0.01 | 72 | 1011.3 |
| 20260906155403 | 88 | 36 | 2.0 | 5.0 | 0.00 | 0.07 | 0.01 | 71 | 1011.4 |
| 20260906155306 | 88 | 32 | 2.0 | 5.0 | 0.00 | 0.07 | 0.01 | 72 | 1011.3 |
| 20260906155203 | 88 | 31 | 2.0 | 5.0 | 0.00 | 0.07 | 0.01 | 73 | 1011.3 |
| 20260906155117 | 88 | 37 | 2.0 | 5.0 | 0.00 | 0.07 | 0.01 | 71 | 1011.4 |
| 20260906155104 | 87 | 38 | 2.0 | 5.0 | 0.00 | 0.07 | 0.01 | 71 | 1011.4 |
| 20260906155004 | 87 | 39 | 2.0 | 5.0 | 0.00 | 0.07 | 0.01 | 71 | 1011.4 |
| 20260906154803 | 87 | 41 | 2.0 | 5.0 | 0.00 | 0.07 | 0.01 | 72 | 1011.4 |
| 20260906154703 | 87 | 38 | 2.0 | 5.0 | 0.00 | 0.07 | 0.01 | 71 | 1011.4 |
| 20260906154604 | 87 | 24 | 2.0 | 4.0 | 0.00 | 0.07 | 0.01 | 72 | 1011.4 |
| 20260906154503 | 87 | 21 | 2.0 | 4.0 | 0.00 | 0.07 | 0.01 | 71 | 1011.4 |
| 20260906154403 | 87 | 24 | 2.0 | 5.0 | 0.00 | 0.07 | 0.01 | 71 | 1011.4 |
| 20260906154303 | 87 | 27 | 2.0 | 5.0 | 0.00 | 0.07 | 0.01 | 71 | 1011.4 |
| 20260906154204 | 87 | 27 | 2.0 | 5.0 | 0.00 | 0.07 | 0.01 | 73 | 1011.4 |
| 20260906154103 | 87 | 27 | 2.0 | 5.0 | 0.00 | 0.07 | 0.01 | 72 | 1011.4 |
| 20260906154003 | 87 | 28 | 2.0 | 5.0 | 0.00 | 0.07 | 0.01 | 73 | 1011.4 |
| 20260906153903 | 87 | 27 | 2.0 | 5.0 | 0.00 | 0.07 | 0.01 | 72 | 1011.4 |
| 20260906153803 | 87 | 28 | 2.0 | 5.0 | 0.00 | 0.07 | 0.01 | 72 | 1011.4 |
| 20260906153703 | 87 | 28 | 2.0 | 5.0 | 0.00 | 0.07 | 0.01 | 72 | 1011.4 |
| 20260906153503 | 87 | 27 | 2.0 | 5.0 | 0.00 | 0.07 | 0.01 | 73 | 1011.4 |
| 20260906153403 | 87 | 26 | 2.0 | 5.0 | 0.00 | 0.07 | 0.01 | 73 | 1011.4 |
| 20260906153203 | 87 | 21 | 2.0 | 5.0 | 0.00 | 0.07 | 0.01 | 72 | 1011.4 |
| 20260906153103 | 87 | 19 | 2.0 | 5.0 | 0.00 | 0.07 | 0.01 | 73 | 1011.4 |
| 20260906153004 | 87 | 15 | 2.0 | 5.0 | 0.00 | 0.07 | 0.01 | 72 | 1011.4 |
| 20260906152903 | 87 | 13 | 2.0 | 6.0 | 0.00 | 0.07 | 0.01 | 72 | 1011.4 |
| 20260906152803 | 87 | 7 | 2.0 | 6.0 | 0.00 | 0.07 | 0.01 | 73 | 1011.4 |
| 20260906152703 | 86 | 2 | 2.0 | 6.0 | 0.00 | 0.07 | 0.01 | 73 | 1011.4 |
| 20260906152604 | 86 | 359 | 2.0 | 6.0 | 0.00 | 0.07 | 0.01 | 73 | 1011.5 |
| 20260906152503 | 86 | 354 | 2.0 | 6.0 | 0.00 | 0.07 | 0.01 | 72 | 1011.5 |
| 20260906152419 | 86 | 354 | 2.0 | 6.0 | 0.00 | 0.07 | 0.01 | 72 | 1011.5 |
| 20260906152403 | 86 | 355 | 2.0 | 6.0 | 0.00 | 0.07 | 0.01 | 73 | 1011.5 |
| 20260906152306 | 86 | 360 | 2.0 | 6.0 | 0.00 | 0.07 | 0.01 | 73 | 1011.5 |
| 20260906152104 | 86 | 360 | 2.0 | 6.0 | 0.00 | 0.07 | 0.01 | 73 | 1011.5 |
| 20260906152003 | 86 | 4 | 2.0 | 6.0 | 0.00 | 0.07 | 0.01 | 73 | 1011.5 |
| 20260906151904 | 86 | 6 | 2.0 | 6.0 | 0.00 | 0.07 | 0.01 | 73 | 1011.5 |
| 20260906151818 | 86 | 8 | 2.0 | 6.0 | 0.00 | 0.07 | 0.01 | 74 | 1011.5 |
| 20260906151804 | 86 | 9 | 2.0 | 6.0 | 0.00 | 0.07 | 0.01 | 74 | 1011.5 |
| 20260906151717 | 86 | 12 | 2.0 | 6.0 | 0.00 | 0.07 | 0.01 | 74 | 1011.5 |
| 20260906151703 | 86 | 14 | 2.0 | 6.0 | 0.00 | 0.07 | 0.01 | 74 | 1011.5 |
| 20260906151403 | 86 | 20 | 2.0 | 6.0 | 0.00 | 0.07 | 0.01 | 75 | 1011.5 |
| 20260906151303 | 86 | 18 | 2.0 | 6.0 | 0.00 | 0.07 | 0.01 | 74 | 1011.4 |
| 20260906151203 | 85 | 16 | 2.0 | 6.0 | 0.00 | 0.07 | 0.01 | 74 | 1011.5 |
| 20260906151103 | 86 | 15 | 2.0 | 5.0 | 0.00 | 0.07 | 0.01 | 74 | 1011.5 |
| 20260906151004 | 86 | 8 | 2.0 | 5.0 | 0.00 | 0.07 | 0.01 | 74 | 1011.5 |
| 20260906150903 | 86 | 2 | 1.0 | 4.0 | 0.00 | 0.07 | 0.01 | 74 | 1011.4 |
| 20260906150804 | 85 | 345 | 1.0 | 4.0 | 0.00 | 0.07 | 0.01 | 74 | 1011.4 |
| 20260906150704 | 85 | 321 | 1.0 | 3.0 | 0.00 | 0.07 | 0.01 | 75 | 1011.5 |
| 20260906150603 | 85 | 300 | 1.0 | 4.0 | 0.00 | 0.07 | 0.01 | 75 | 1011.5 |
| 20260906150503 | 85 | 276 | 1.0 | 4.0 | 0.00 | 0.07 | 0.01 | 75 | 1011.4 |
| 20260906150403 | 85 | 280 | 1.0 | 4.0 | 0.00 | 0.07 | 0.01 | 76 | 1011.5 |
| 20260906150303 | 85 | 285 | 1.0 | 4.0 | 0.00 | 0.07 | 0.01 | 76 | 1011.5 |
| 20260906150204 | 85 | 293 | 1.0 | 4.0 | 0.00 | 0.07 | 0.01 | 75 | 1011.5 |
| 20260906150004 | 85 | 326 | 1.0 | 5.0 | 0.00 | 0.07 | 0.01 | 76 | 1011.5 |
| 20260906145903 | 85 | 328 | 1.0 | 5.0 | 0.00 | 0.07 | 0.01 | 77 | 1011.5 |
| 20260906145803 | 85 | 331 | 1.0 | 5.0 | 0.00 | 0.07 | 0.01 | 76 | 1011.5 |
| 20260906145703 | 85 | 332 | 1.0 | 5.0 | 0.00 | 0.07 | 0.01 | 75 | 1011.5 |
| 20260906145603 | 84 | 336 | 1.0 | 5.0 | 0.00 | 0.07 | 0.01 | 75 | 1011.5 |
| 20260906145518 | 84 | 337 | 1.0 | 5.0 | 0.00 | 0.07 | 0.01 | 76 | 1011.5 |
| 20260906145503 | 84 | 338 | 1.0 | 5.0 | 0.00 | 0.07 | 0.01 | 76 | 1011.5 |
| 20260906145403 | 84 | 343 | 1.0 | 5.0 | 0.00 | 0.07 | 0.01 | 77 | 1011.5 |
| 20260906145203 | 84 | 327 | 1.0 | 5.0 | 0.00 | 0.07 | 0.01 | 77 | 1011.5 |
| 20260906145116 | 84 | 311 | 1.0 | 3.0 | 0.00 | 0.07 | 0.01 | 77 | 1011.5 |
| 20260906145104 | 84 | 305 | 1.0 | 3.0 | 0.00 | 0.07 | 0.01 | 77 | 1011.5 |
| 20260906145004 | 84 | 303 | 1.0 | 4.0 | 0.00 | 0.07 | 0.01 | 77 | 1011.5 |
| 20260906144803 | 84 | 309 | 1.0 | 4.0 | 0.00 | 0.07 | 0.01 | 76 | 1011.6 |
| 20260906144703 | 84 | 312 | 1.0 | 4.0 | 0.00 | 0.07 | 0.01 | 78 | 1011.6 |
| 20260906144617 | 84 | 311 | 1.0 | 4.0 | 0.00 | 0.07 | 0.01 | 79 | 1011.6 |
| 20260906144603 | 84 | 309 | 1.0 | 4.0 | 0.00 | 0.07 | 0.01 | 79 | 1011.6 |
| 20260906144503 | 83 | 315 | 1.0 | 4.0 | 0.00 | 0.07 | 0.01 | 78 | 1011.6 |
| 20260906144303 | 83 | 349 | 1.0 | 4.0 | 0.00 | 0.07 | 0.01 | 78 | 1011.6 |
| 20260906144203 | 83 | 19 | 1.0 | 4.0 | 0.00 | 0.07 | 0.01 | 79 | 1011.6 |
| 20260906144104 | 83 | 23 | 1.0 | 4.0 | 0.00 | 0.07 | 0.01 | 79 | 1011.5 |
| 20260906144003 | 83 | 23 | 1.0 | 5.0 | 0.00 | 0.07 | 0.01 | 78 | 1011.5 |
| 20260906143903 | 83 | 26 | 1.0 | 5.0 | 0.00 | 0.07 | 0.01 | 78 | 1011.5 |
| 20260906143804 | 83 | 22 | 2.0 | 5.0 | 0.00 | 0.07 | 0.01 | 78 | 1011.5 |
| 20260906143704 | 83 | 21 | 2.0 | 5.0 | 0.00 | 0.07 | 0.01 | 78 | 1011.5 |
| 20260906143603 | 83 | 19 | 2.0 | 5.0 | 0.00 | 0.07 | 0.01 | 79 | 1011.5 |
| 20260906143503 | 83 | 17 | 2.0 | 5.0 | 0.00 | 0.07 | 0.01 | 79 | 1011.5 |
| 20260906143403 | 83 | 13 | 2.0 | 5.0 | 0.00 | 0.07 | 0.01 | 80 | 1011.5 |
| 20260906143317 | 83 | 11 | 2.0 | 5.0 | 0.00 | 0.07 | 0.01 | 79 | 1011.5 |
| 20260906143304 | 83 | 10 | 2.0 | 5.0 | 0.00 | 0.07 | 0.01 | 79 | 1011.6 |
| 20260906143203 | 82 | 9 | 2.0 | 5.0 | 0.00 | 0.07 | 0.01 | 79 | 1011.6 |
| 20260906143003 | 82 | 4 | 1.0 | 5.0 | 0.00 | 0.07 | 0.01 | 79 | 1011.6 |
| 20260906142903 | 82 | 3 | 1.0 | 4.0 | 0.00 | 0.07 | 0.01 | 80 | 1011.6 |
| 20260906142804 | 82 | 4 | 1.0 | 4.0 | 0.00 | 0.07 | 0.01 | 79 | 1011.6 |
| 20260906142703 | 82 | 360 | 1.0 | 4.0 | 0.00 | 0.07 | 0.01 | 80 | 1011.6 |
| 20260906142603 | 82 | 358 | 1.0 | 4.0 | 0.00 | 0.07 | 0.01 | 79 | 1011.6 |
| 20260906142518 | 82 | 355 | 1.0 | 4.0 | 0.00 | 0.07 | 0.01 | 80 | 1011.6 |
| 20260906142504 | 82 | 354 | 1.0 | 4.0 | 0.00 | 0.07 | 0.01 | 80 | 1011.6 |
| 20260906142403 | 82 | 354 | 1.0 | 4.0 | 0.00 | 0.07 | 0.01 | 81 | 1011.6 |
| 20260906142317 | 82 | 356 | 1.0 | 4.0 | 0.00 | 0.07 | 0.01 | 81 | 1011.6 |
| 20260906142203 | 82 | 357 | 1.0 | 4.0 | 0.00 | 0.07 | 0.01 | 81 | 1011.6 |
| 20260906141903 | 81 | 5 | 2.0 | 7.0 | 0.00 | 0.07 | 0.01 | 82 | 1011.6 |
| 20260906141803 | 81 | 10 | 2.0 | 7.0 | 0.00 | 0.07 | 0.01 | 82 | 1011.6 |
| 20260906141704 | 81 | 11 | 2.0 | 7.0 | 0.00 | 0.07 | 0.01 | 81 | 1011.6 |
| 20260906141603 | 81 | 14 | 2.0 | 7.0 | 0.00 | 0.07 | 0.01 | 81 | 1011.6 |
| 20260906141503 | 81 | 16 | 2.0 | 7.0 | 0.00 | 0.07 | 0.01 | 82 | 1011.6 |
| 20260906141404 | 81 | 18 | 2.0 | 7.0 | 0.00 | 0.07 | 0.01 | 82 | 1011.6 |
| 20260906141303 | 81 | 21 | 2.0 | 7.0 | 0.00 | 0.07 | 0.01 | 82 | 1011.6 |
| 20260906141204 | 81 | 23 | 2.0 | 7.0 | 0.00 | 0.07 | 0.01 | 82 | 1011.6 |
| 20260906141103 | 80 | 26 | 2.0 | 7.0 | 0.00 | 0.07 | 0.01 | 82 | 1011.6 |
| 20260906141004 | 80 | 32 | 1.0 | 7.0 | 0.00 | 0.07 | 0.01 | 83 | 1011.6 |
| 20260906140903 | 80 | 36 | 1.0 | 3.0 | 0.00 | 0.07 | 0.01 | 84 | 1011.6 |
| 20260906140804 | 80 | 35 | 1.0 | 3.0 | 0.00 | 0.07 | 0.01 | 85 | 1011.6 |
| 20260906140703 | 80 | 35 | 1.0 | 3.0 | 0.00 | 0.07 | 0.01 | 86 | 1011.6 |
| 20260906140603 | 80 | 35 | 0.0 | 3.0 | 0.00 | 0.07 | 0.01 | 87 | 1011.7 |
| 20260906140503 | 80 | 35 | 0.0 | 3.0 | 0.00 | 0.07 | 0.01 | 86 | 1011.7 |
| 20260906140404 | 80 | 35 | 0.0 | 3.0 | 0.00 | 0.07 | 0.01 | 87 | 1011.7 |
| 20260906140304 | 80 | 35 | 0.0 | 3.0 | 0.00 | 0.07 | 0.01 | 86 | 1011.7 |
| 20260906140203 | 79 | 36 | 0.0 | 2.0 | 0.00 | 0.07 | 0.01 | 87 | 1011.7 |
| 20260906140003 | 79 | 38 | 0.0 | 2.0 | 0.00 | 0.07 | 0.01 | 88 | 1011.7 |
| 20260906135903 | 79 | 36 | 1.0 | 3.0 | 0.00 | 0.07 | 0.01 | 88 | 1011.7 |
| 20260906135804 | 79 | 29 | 1.0 | 3.0 | 0.00 | 0.07 | 0.01 | 87 | 1011.7 |
| 20260906135703 | 79 | 27 | 1.0 | 3.0 | 0.00 | 0.07 | 0.01 | 88 | 1011.7 |
| 20260906135603 | 79 | 21 | 1.0 | 3.0 | 0.00 | 0.07 | 0.01 | 89 | 1011.7 |
| 20260906135504 | 79 | 15 | 1.0 | 3.0 | 0.00 | 0.07 | 0.01 | 88 | 1011.7 |
| 20260906135403 | 79 | 13 | 1.0 | 3.0 | 0.00 | 0.07 | 0.01 | 88 | 1011.7 |
| 20260906135306 | 79 | 8 | 1.0 | 3.0 | 0.00 | 0.07 | 0.01 | 88 | 1011.7 |
| 20260906135103 | 79 | 323 | 1.0 | 3.0 | 0.00 | 0.07 | 0.01 | 87 | 1011.7 |
| 20260906135019 | 78 | 306 | 1.0 | 3.0 | 0.00 | 0.07 | 0.01 | 87 | 1011.7 |
| 20260906135003 | 78 | 300 | 1.0 | 3.0 | 0.00 | 0.07 | 0.01 | 88 | 1011.7 |
| 20260906134917 | 78 | 287 | 1.0 | 3.0 | 0.00 | 0.07 | 0.01 | 88 | 1011.7 |
| 20260906134904 | 78 | 287 | 1.0 | 3.0 | 0.00 | 0.07 | 0.01 | 89 | 1011.7 |
| 20260906134818 | 78 | 287 | 1.0 | 3.0 | 0.00 | 0.07 | 0.01 | 89 | 1011.7 |
| 20260906134503 | 78 | 285 | 1.0 | 3.0 | 0.00 | 0.07 | 0.01 | 89 | 1011.7 |
| 20260906134403 | 78 | 285 | 1.0 | 3.0 | 0.00 | 0.07 | 0.01 | 89 | 1011.7 |
| 20260906134104 | 77 | 285 | 1.0 | 3.0 | 0.00 | 0.07 | 0.01 | 90 | 1011.7 |
| 20260906134003 | 77 | 284 | 1.0 | 3.0 | 0.00 | 0.07 | 0.01 | 90 | 1011.7 |
| 20260906133903 | 77 | 284 | 1.0 | 2.0 | 0.00 | 0.07 | 0.01 | 90 | 1011.8 |
| 20260906133704 | 77 | 284 | 0.0 | 2.0 | 0.00 | 0.07 | 0.01 | 91 | 1011.8 |
| 20260906133603 | 77 | 284 | 0.0 | 2.0 | 0.00 | 0.07 | 0.01 | 92 | 1011.8 |
| 20260906133503 | 76 | 284 | 0.0 | 2.0 | 0.00 | 0.07 | 0.01 | 92 | 1011.7 |
| 20260906133404 | 76 | 284 | 0.0 | 2.0 | 0.00 | 0.07 | 0.01 | 92 | 1011.8 |
| 20260906133304 | 76 | 284 | 0.0 | 2.0 | 0.00 | 0.07 | 0.01 | 93 | 1011.8 |
| 20260906133204 | 76 | 284 | 0.0 | 1.0 | 0.00 | 0.07 | 0.01 | 93 | 1011.8 |
| 20260906133104 | 76 | 284 | 0.0 | 1.0 | 0.00 | 0.07 | 0.01 | 93 | 1011.8 |
| 20260906133003 | 76 | 284 | 0.0 | 2.0 | 0.00 | 0.07 | 0.01 | 93 | 1011.8 |
| 20260906132818 | 76 | 284 | 0.0 | 2.0 | 0.00 | 0.07 | 0.01 | 93 | 1011.9 |
| 20260906132703 | 76 | 284 | 0.0 | 2.0 | 0.00 | 0.07 | 0.01 | 93 | 1011.9 |
| 20260906132617 | 76 | 284 | 0.0 | 2.0 | 0.00 | 0.07 | 0.01 | 94 | 1011.9 |
| 20260906132504 | 76 | 284 | 0.0 | 2.0 | 0.00 | 0.07 | 0.01 | 94 | 1011.9 |
| 20260906132306 | 75 | 284 | 0.0 | 2.0 | 0.00 | 0.07 | 0.01 | 94 | 1011.9 |
| 20260906132204 | 75 | 284 | 0.0 | 2.0 | 0.00 | 0.07 | 0.01 | 94 | 1011.9 |
| 20260906132103 | 75 | 284 | 0.0 | 2.0 | 0.00 | 0.07 | 0.01 | 94 | 1012.0 |
| 20260906131903 | 75 | 284 | 0.0 | 2.0 | 0.00 | 0.07 | 0.01 | 94 | 1012.0 |
| 20260906131803 | 75 | 284 | 1.0 | 2.0 | 0.00 | 0.07 | 0.01 | 94 | 1012.0 |
| 20260906131703 | 75 | 284 | 1.0 | 2.0 | 0.00 | 0.07 | 0.01 | 95 | 1012.0 |
| 20260906131603 | 74 | 284 | 1.0 | 2.0 | 0.00 | 0.07 | 0.01 | 95 | 1012.0 |
| 20260906131504 | 74 | 284 | 1.0 | 2.0 | 0.00 | 0.07 | 0.01 | 95 | 1012.0 |
| 20260906131403 | 74 | 284 | 1.0 | 2.0 | 0.00 | 0.07 | 0.01 | 95 | 1012.0 |
| 20260906131303 | 74 | 284 | 1.0 | 2.0 | 0.00 | 0.07 | 0.01 | 95 | 1012.0 |
| 20260906131203 | 74 | 284 | 1.0 | 2.0 | 0.00 | 0.07 | 0.01 | 95 | 1012.0 |
| 20260906131104 | 74 | 284 | 1.0 | 2.0 | 0.00 | 0.07 | 0.01 | 95 | 1011.9 |
| 20260906131003 | 74 | 284 | 1.0 | 2.0 | 0.00 | 0.07 | 0.01 | 95 | 1011.9 |
| 20260906130904 | 74 | 284 | 1.0 | 2.0 | 0.00 | 0.07 | 0.01 | 96 | 1011.9 |
| 20260906130803 | 74 | 283 | 1.0 | 2.0 | 0.00 | 0.07 | 0.01 | 96 | 1011.9 |
| 20260906130704 | 74 | 282 | 1.0 | 2.0 | 0.00 | 0.07 | 0.01 | 96 | 1011.9 |
| 20260906130503 | 74 | 280 | 1.0 | 2.0 | 0.00 | 0.07 | 0.01 | 96 | 1012.0 |
| 20260906130403 | 74 | 279 | 1.0 | 2.0 | 0.00 | 0.07 | 0.01 | 96 | 1011.9 |
| 20260906130304 | 74 | 279 | 1.0 | 2.0 | 0.00 | 0.07 | 0.01 | 96 | 1011.9 |
| 20260906130203 | 73 | 278 | 1.0 | 2.0 | 0.00 | 0.07 | 0.01 | 96 | 1011.9 |
| 20260906130103 | 73 | 277 | 1.0 | 2.0 | 0.00 | 0.07 | 0.01 | 96 | 1012.0 |
| 20260906130003 | 73 | 275 | 1.0 | 2.0 | 0.00 | 0.07 | 0.01 | 96 | 1012.0 |
| 20260906125904 | 73 | 273 | 0.0 | 2.0 | 0.00 | 0.07 | 0.01 | 96 | 1012.0 |
| 20260906125803 | 73 | 273 | 0.0 | 2.0 | 0.00 | 0.07 | 0.01 | 96 | 1012.0 |
| 20260906125703 | 73 | 273 | 0.0 | 2.0 | 0.00 | 0.07 | 0.01 | 96 | 1012.0 |
| 20260906125603 | 73 | 273 | 0.0 | 2.0 | 0.00 | 0.07 | 0.01 | 96 | 1012.0 |
| 20260906125503 | 73 | 0 | 0.0 | 0.0 | 0.00 | 0.07 | 0.01 | 96 | 1012.0 |
| 20260906125404 | 73 | 0 | 0.0 | 0.0 | 0.00 | 0.07 | 0.01 | 96 | 1012.0 |
| 20260906125306 | 73 | 0 | 0.0 | 0.0 | 0.00 | 0.07 | 0.01 | 96 | 1012.0 |
| 20260906125203 | 73 | 0 | 0.0 | 0.0 | 0.00 | 0.07 | 0.01 | 96 | 1012.0 |
| 20260906125103 | 73 | 0 | 0.0 | 0.0 | 0.00 | 0.07 | 0.01 | 96 | 1012.0 |
| 20260906125003 | 73 | 0 | 0.0 | 0.0 | 0.00 | 0.07 | 0.01 | 96 | 1012.0 |
| 20260906124804 | 72 | 0 | 0.0 | 0.0 | 0.00 | 0.07 | 0.01 | 96 | 1011.9 |
| 20260906124703 | 72 | 0 | 0.0 | 0.0 | 0.00 | 0.07 | 0.01 | 96 | 1011.9 |
| 20260906124603 | 72 | 0 | 0.0 | 0.0 | 0.00 | 0.07 | 0.01 | 96 | 1011.9 |
| 20260906124504 | 72 | 0 | 0.0 | 0.0 | 0.00 | 0.07 | 0.01 | 96 | 1011.9 |
| 20260906124404 | 72 | 0 | 0.0 | 0.0 | 0.00 | 0.07 | 0.01 | 96 | 1011.9 |
| 20260906124318 | 72 | 0 | 0.0 | 0.0 | 0.00 | 0.07 | 0.01 | 96 | 1011.8 |
| 20260906124203 | 72 | 0 | 0.0 | 0.0 | 0.00 | 0.07 | 0.01 | 96 | 1011.8 |
| 20260906123904 | 72 | 0 | 0.0 | 0.0 | 0.00 | 0.07 | 0.01 | 96 | 1011.8 |
| 20260906123803 | 72 | 0 | 0.0 | 0.0 | 0.00 | 0.07 | 0.01 | 96 | 1011.8 |
| 20260906123604 | 72 | 0 | 0.0 | 0.0 | 0.00 | 0.07 | 0.01 | 96 | 1011.8 |
| 20260906123504 | 72 | 0 | 0.0 | 0.0 | 0.00 | 0.07 | 0.01 | 96 | 1011.7 |
| 20260906123404 | 71 | 0 | 0.0 | 0.0 | 0.00 | 0.07 | 0.01 | 96 | 1011.7 |
| 20260906123304 | 71 | 0 | 0.0 | 0.0 | 0.00 | 0.07 | 0.01 | 96 | 1011.8 |
| 20260906123219 | 71 | 0 | 0.0 | 0.0 | 0.00 | 0.07 | 0.01 | 96 | 1011.8 |
| 20260906123203 | 71 | 0 | 0.0 | 0.0 | 0.00 | 0.07 | 0.01 | 96 | 1011.7 |
| 20260906123103 | 71 | 0 | 0.0 | 0.0 | 0.00 | 0.07 | 0.01 | 96 | 1011.7 |
| 20260906122903 | 71 | 0 | 0.0 | 0.0 | 0.00 | 0.07 | 0.01 | 96 | 1011.7 |
| 20260906122803 | 71 | 0 | 0.0 | 0.0 | 0.00 | 0.07 | 0.01 | 96 | 1011.8 |
| 20260906122704 | 71 | 0 | 0.0 | 0.0 | 0.00 | 0.07 | 0.01 | 96 | 1011.7 |
| 20260906122619 | 71 | 0 | 0.0 | 0.0 | 0.00 | 0.07 | 0.01 | 96 | 1011.7 |
| 20260906122503 | 71 | 0 | 0.0 | 0.0 | 0.00 | 0.07 | 0.01 | 96 | 1011.7 |
| 20260906122306 | 71 | 0 | 0.0 | 0.0 | 0.00 | 0.07 | 0.01 | 96 | 1011.7 |
| 20260906122204 | 71 | 0 | 0.0 | 0.0 | 0.00 | 0.07 | 0.01 | 95 | 1011.7 |
| 20260906122103 | 71 | 0 | 0.0 | 0.0 | 0.00 | 0.07 | 0.01 | 95 | 1011.7 |
| 20260906121903 | 71 | 0 | 0.0 | 0.0 | 0.00 | 0.07 | 0.01 | 95 | 1011.7 |
| 20260906121803 | 71 | 0 | 0.0 | 0.0 | 0.00 | 0.07 | 0.01 | 95 | 1011.7 |
| 20260906121603 | 71 | 0 | 0.0 | 0.0 | 0.00 | 0.07 | 0.01 | 96 | 1011.6 |
| 20260906121504 | 70 | 0 | 0.0 | 0.0 | 0.00 | 0.07 | 0.01 | 96 | 1011.6 |
| 20260906121404 | 70 | 0 | 0.0 | 0.0 | 0.00 | 0.07 | 0.01 | 96 | 1011.6 |
| 20260906121103 | 70 | 0 | 0.0 | 0.0 | 0.00 | 0.07 | 0.01 | 95 | 1011.6 |
| 20260906121003 | 70 | 0 | 0.0 | 0.0 | 0.00 | 0.07 | 0.01 | 95 | 1011.6 |
| 20260906120904 | 70 | 0 | 0.0 | 0.0 | 0.00 | 0.07 | 0.01 | 95 | 1011.6 |
| 20260906120804 | 70 | 0 | 0.0 | 0.0 | 0.00 | 0.07 | 0.01 | 95 | 1011.6 |
| 20260906120703 | 70 | 0 | 0.0 | 0.0 | 0.00 | 0.07 | 0.01 | 95 | 1011.6 |
| 20260906120604 | 70 | 0 | 0.0 | 0.0 | 0.00 | 0.07 | 0.01 | 95 | 1011.6 |
| 20260906120504 | 70 | 0 | 0.0 | 0.0 | 0.00 | 0.07 | 0.01 | 95 | 1011.6 |
| 20260906120403 | 70 | 0 | 0.0 | 0.0 | 0.00 | 0.07 | 0.01 | 95 | 1011.6 |
| 20260906120203 | 70 | 0 | 0.0 | 0.0 | 0.01 | 0.07 | 0.01 | 95 | 1011.6 |
| 20260906115903 | 70 | 0 | 0.0 | 0.0 | 0.01 | 0.07 | 0.01 | 95 | 1011.5 |
| 20260906115804 | 70 | 0 | 0.0 | 0.0 | 0.01 | 0.07 | 0.01 | 95 | 1011.5 |
| 20260906115703 | 70 | 0 | 0.0 | 0.0 | 0.01 | 0.07 | 0.01 | 95 | 1011.5 |
| 20260906115603 | 70 | 0 | 0.0 | 0.0 | 0.01 | 0.07 | 0.01 | 95 | 1011.4 |
| 20260906115404 | 70 | 0 | 0.0 | 0.0 | 0.01 | 0.07 | 0.01 | 95 | 1011.3 |
| 20260906115306 | 70 | 0 | 0.0 | 0.0 | 0.01 | 0.07 | 0.01 | 95 | 1011.3 |
| 20260906115219 | 70 | 0 | 0.0 | 0.0 | 0.01 | 0.07 | 0.01 | 95 | 1011.3 |
| 20260906115117 | 70 | 0 | 0.0 | 0.0 | 0.01 | 0.07 | 0.01 | 95 | 1011.3 |
| 20260906114804 | 70 | 0 | 0.0 | 0.0 | 0.01 | 0.07 | 0.01 | 95 | 1011.2 |
| 20260906114704 | 70 | 0 | 0.0 | 0.0 | 0.01 | 0.07 | 0.01 | 94 | 1011.2 |
| 20260906114603 | 70 | 0 | 0.0 | 0.0 | 0.01 | 0.07 | 0.01 | 94 | 1011.1 |
| 20260906114403 | 70 | 0 | 0.0 | 0.0 | 0.01 | 0.07 | 0.01 | 94 | 1011.1 |
| 20260906114304 | 70 | 0 | 0.0 | 0.0 | 0.01 | 0.07 | 0.01 | 94 | 1011.1 |
| 20260906114203 | 70 | 0 | 0.0 | 0.0 | 0.01 | 0.07 | 0.01 | 94 | 1011.1 |
| 20260906113905 | 70 | 0 | 0.0 | 0.0 | 0.01 | 0.07 | 0.01 | 94 | 1011.0 |
| 20260906113804 | 70 | 0 | 0.0 | 0.0 | 0.01 | 0.07 | 0.01 | 94 | 1011.0 |
| 20260906113704 | 70 | 0 | 0.0 | 0.0 | 0.01 | 0.07 | 0.01 | 94 | 1011.0 |
| 20260906113604 | 70 | 0 | 0.0 | 0.0 | 0.01 | 0.07 | 0.01 | 94 | 1010.9 |
| 20260906113503 | 70 | 0 | 0.0 | 0.0 | 0.01 | 0.07 | 0.01 | 94 | 1010.9 |
| 20260906113403 | 70 | 0 | 0.0 | 0.0 | 0.01 | 0.07 | 0.01 | 94 | 1010.9 |
| 20260906113303 | 70 | 0 | 0.0 | 0.0 | 0.01 | 0.07 | 0.01 | 94 | 1010.9 |
| 20260906113203 | 70 | 0 | 0.0 | 0.0 | 0.01 | 0.07 | 0.01 | 94 | 1010.9 |
| 20260906113103 | 70 | 0 | 0.0 | 0.0 | 0.01 | 0.07 | 0.01 | 94 | 1010.9 |
| 20260906113003 | 70 | 0 | 0.0 | 0.0 | 0.01 | 0.07 | 0.01 | 94 | 1010.9 |
| 20260906112903 | 70 | 0 | 0.0 | 0.0 | 0.01 | 0.07 | 0.01 | 94 | 1010.9 |
| 20260906112803 | 70 | 0 | 0.0 | 0.0 | 0.01 | 0.07 | 0.01 | 94 | 1010.8 |
| 20260906112604 | 70 | 0 | 0.0 | 0.0 | 0.01 | 0.07 | 0.01 | 94 | 1010.9 |
| 20260906112504 | 70 | 0 | 0.0 | 0.0 | 0.01 | 0.07 | 0.01 | 94 | 1010.9 |
| 20260906112306 | 70 | 0 | 0.0 | 0.0 | 0.01 | 0.07 | 0.01 | 94 | 1010.9 |
| 20260906112204 | 70 | 0 | 0.0 | 0.0 | 0.01 | 0.07 | 0.01 | 94 | 1010.9 |
| 20260906112004 | 70 | 0 | 0.0 | 0.0 | 0.01 | 0.07 | 0.01 | 94 | 1010.9 |
| 20260906111904 | 70 | 0 | 0.0 | 0.0 | 0.01 | 0.07 | 0.01 | 94 | 1010.9 |
| 20260906111804 | 70 | 0 | 0.0 | 0.0 | 0.01 | 0.07 | 0.01 | 94 | 1010.8 |
| 20260906111717 | 70 | 0 | 0.0 | 0.0 | 0.01 | 0.07 | 0.01 | 94 | 1010.8 |
| 20260906111603 | 70 | 0 | 0.0 | 0.0 | 0.01 | 0.07 | 0.01 | 94 | 1010.9 |
| 20260906111403 | 70 | 0 | 0.0 | 0.0 | 0.01 | 0.07 | 0.01 | 94 | 1010.8 |
| 20260906111304 | 70 | 0 | 0.0 | 0.0 | 0.01 | 0.07 | 0.01 | 94 | 1010.8 |
| 20260906111216 | 70 | 0 | 0.0 | 0.0 | 0.01 | 0.07 | 0.01 | 94 | 1010.8 |
| 20260906111203 | 70 | 0 | 0.0 | 0.0 | 0.01 | 0.07 | 0.01 | 94 | 1010.9 |
| 20260906111103 | 70 | 0 | 0.0 | 0.0 | 0.01 | 0.07 | 0.01 | 94 | 1010.9 |
| 20260906110903 | 70 | 0 | 0.0 | 0.0 | 0.01 | 0.07 | 0.01 | 94 | 1010.9 |
| 20260906110804 | 70 | 0 | 0.0 | 0.0 | 0.01 | 0.07 | 0.01 | 94 | 1010.9 |
| 20260906110704 | 70 | 0 | 0.0 | 0.0 | 0.01 | 0.07 | 0.01 | 94 | 1010.9 |
| 20260906110604 | 70 | 0 | 0.0 | 0.0 | 0.01 | 0.07 | 0.01 | 94 | 1010.9 |
| 20260906110503 | 70 | 0 | 0.0 | 0.0 | 0.01 | 0.07 | 0.01 | 94 | 1010.8 |
| 20260906110403 | 70 | 0 | 0.0 | 0.0 | 0.01 | 0.07 | 0.01 | 94 | 1010.8 |
| 20260906110303 | 70 | 0 | 0.0 | 0.0 | 0.01 | 0.07 | 0.01 | 94 | 1010.9 |
| 20260906110204 | 70 | 0 | 0.0 | 0.0 | 0.00 | 0.06 | 0.00 | 94 | 1010.8 |
| 20260906110003 | 70 | 0 | 0.0 | 0.0 | 0.00 | 0.06 | 0.00 | 94 | 1010.7 |
| 20260906105904 | 70 | 0 | 0.0 | 0.0 | 0.00 | 0.06 | 0.00 | 94 | 1010.7 |
| 20260906105804 | 70 | 0 | 0.0 | 0.0 | 0.00 | 0.06 | 0.00 | 94 | 1010.8 |
| 20260906105703 | 70 | 0 | 0.0 | 0.0 | 0.00 | 0.06 | 0.00 | 94 | 1010.7 |
| 20260906105604 | 70 | 0 | 0.0 | 0.0 | 0.00 | 0.06 | 0.00 | 94 | 1010.7 |
| 20260906105504 | 70 | 0 | 0.0 | 0.0 | 0.00 | 0.06 | 0.00 | 94 | 1010.8 |
| 20260906105404 | 70 | 0 | 0.0 | 0.0 | 0.00 | 0.06 | 0.00 | 94 | 1010.7 |
| 20260906105306 | 70 | 0 | 0.0 | 0.0 | 0.00 | 0.06 | 0.00 | 94 | 1010.7 |
| 20260906105203 | 70 | 0 | 0.0 | 0.0 | 0.00 | 0.06 | 0.00 | 94 | 1010.7 |
| 20260906105103 | 70 | 0 | 0.0 | 0.0 | 0.00 | 0.06 | 0.00 | 94 | 1010.7 |
| 20260906105003 | 70 | 0 | 0.0 | 0.0 | 0.00 | 0.06 | 0.00 | 94 | 1010.6 |
| 20260906104903 | 70 | 0 | 0.0 | 0.0 | 0.00 | 0.06 | 0.00 | 94 | 1010.6 |
| 20260906104704 | 70 | 0 | 0.0 | 0.0 | 0.00 | 0.06 | 0.00 | 94 | 1010.6 |
| 20260906104603 | 70 | 0 | 0.0 | 0.0 | 0.00 | 0.06 | 0.00 | 94 | 1010.6 |
| 20260906104519 | 71 | 0 | 0.0 | 0.0 | 0.00 | 0.06 | 0.00 | 94 | 1010.6 |
| 20260906104503 | 70 | 0 | 0.0 | 0.0 | 0.00 | 0.06 | 0.00 | 94 | 1010.6 |
| 20260906104403 | 71 | 0 | 0.0 | 0.0 | 0.00 | 0.06 | 0.00 | 94 | 1010.6 |
| 20260906104203 | 71 | 0 | 0.0 | 0.0 | 0.00 | 0.06 | 0.00 | 94 | 1010.6 |
| 20260906104103 | 71 | 0 | 0.0 | 0.0 | 0.00 | 0.06 | 0.00 | 94 | 1010.6 |
| 20260906104003 | 71 | 0 | 0.0 | 0.0 | 0.00 | 0.06 | 0.00 | 94 | 1010.6 |
| 20260906103903 | 71 | 0 | 0.0 | 0.0 | 0.00 | 0.06 | 0.00 | 94 | 1010.7 |
| 20260906103803 | 71 | 0 | 0.0 | 0.0 | 0.00 | 0.06 | 0.00 | 94 | 1010.7 |
| 20260906103704 | 71 | 0 | 0.0 | 0.0 | 0.00 | 0.06 | 0.00 | 94 | 1010.7 |
| 20260906103603 | 71 | 0 | 0.0 | 0.0 | 0.00 | 0.06 | 0.00 | 94 | 1010.7 |
| 20260906103503 | 71 | 0 | 0.0 | 0.0 | 0.00 | 0.06 | 0.00 | 94 | 1010.7 |
| 20260906103403 | 71 | 0 | 0.0 | 0.0 | 0.00 | 0.06 | 0.00 | 94 | 1010.7 |
| 20260906103204 | 71 | 0 | 0.0 | 0.0 | 0.00 | 0.06 | 0.00 | 94 | 1010.7 |
| 20260906103103 | 71 | 0 | 0.0 | 0.0 | 0.00 | 0.06 | 0.00 | 94 | 1010.6 |
| 20260906103003 | 71 | 0 | 0.0 | 0.0 | 0.00 | 0.06 | 0.00 | 94 | 1010.6 |
| 20260906102904 | 71 | 0 | 0.0 | 0.0 | 0.00 | 0.06 | 0.00 | 94 | 1010.6 |
| 20260906102803 | 71 | 0 | 0.0 | 0.0 | 0.00 | 0.06 | 0.00 | 94 | 1010.6 |
| 20260906102703 | 71 | 0 | 0.0 | 0.0 | 0.00 | 0.06 | 0.00 | 94 | 1010.7 |
| 20260906102603 | 71 | 0 | 0.0 | 0.0 | 0.00 | 0.06 | 0.00 | 94 | 1010.7 |
| 20260906102503 | 71 | 0 | 0.0 | 0.0 | 0.00 | 0.06 | 0.00 | 94 | 1010.7 |
| 20260906102404 | 71 | 0 | 0.0 | 0.0 | 0.00 | 0.06 | 0.00 | 94 | 1010.7 |
| 20260906102306 | 71 | 0 | 0.0 | 0.0 | 0.00 | 0.06 | 0.00 | 94 | 1010.7 |
| 20260906102203 | 71 | 0 | 0.0 | 0.0 | 0.00 | 0.06 | 0.00 | 94 | 1010.7 |
| 20260906102103 | 71 | 0 | 0.0 | 0.0 | 0.00 | 0.06 | 0.00 | 94 | 1010.7 |
| 20260906102004 | 71 | 0 | 0.0 | 0.0 | 0.00 | 0.06 | 0.00 | 94 | 1010.7 |
| 20260906101904 | 71 | 0 | 0.0 | 0.0 | 0.00 | 0.06 | 0.00 | 94 | 1010.7 |
| 20260906101803 | 71 | 0 | 0.0 | 0.0 | 0.00 | 0.06 | 0.00 | 94 | 1010.7 |
| 20260906101703 | 71 | 0 | 0.0 | 0.0 | 0.00 | 0.06 | 0.00 | 94 | 1010.7 |
| 20260906101604 | 71 | 0 | 0.0 | 0.0 | 0.00 | 0.06 | 0.00 | 94 | 1010.7 |
| 20260906101503 | 71 | 0 | 0.0 | 0.0 | 0.00 | 0.06 | 0.00 | 94 | 1010.7 |
| 20260906101404 | 71 | 0 | 0.0 | 0.0 | 0.00 | 0.06 | 0.00 | 94 | 1010.8 |
| 20260906101303 | 71 | 0 | 0.0 | 0.0 | 0.00 | 0.06 | 0.00 | 94 | 1010.8 |
| 20260906101103 | 71 | 0 | 0.0 | 0.0 | 0.00 | 0.06 | 0.00 | 94 | 1010.8 |
| 20260906101003 | 71 | 0 | 0.0 | 0.0 | 0.00 | 0.06 | 0.00 | 94 | 1010.8 |
| 20260906100903 | 71 | 0 | 0.0 | 0.0 | 0.00 | 0.06 | 0.00 | 94 | 1010.8 |
| 20260906100804 | 71 | 0 | 0.0 | 0.0 | 0.00 | 0.06 | 0.00 | 94 | 1010.7 |
| 20260906100704 | 71 | 0 | 0.0 | 0.0 | 0.00 | 0.06 | 0.00 | 94 | 1010.7 |
| 20260906100603 | 71 | 0 | 0.0 | 0.0 | 0.00 | 0.06 | 0.00 | 94 | 1010.7 |
| 20260906100504 | 71 | 0 | 0.0 | 0.0 | 0.00 | 0.06 | 0.00 | 94 | 1010.6 |
| 20260906100403 | 71 | 0 | 0.0 | 0.0 | 0.00 | 0.06 | 0.00 | 94 | 1010.6 |
| 20260906100303 | 71 | 0 | 0.0 | 0.0 | 0.00 | 0.06 | 0.00 | 94 | 1010.6 |
| 20260906100203 | 71 | 0 | 0.0 | 0.0 | 0.00 | 0.06 | 0.00 | 94 | 1010.6 |
| 20260906100017 | 71 | 0 | 0.0 | 0.0 | 0.00 | 0.06 | 0.00 | 94 | 1010.7 |
| 20260906100003 | 71 | 0 | 0.0 | 0.0 | 0.00 | 0.06 | 0.00 | 94 | 1010.6 |
| 20260906095904 | 71 | 0 | 0.0 | 0.0 | 0.00 | 0.06 | 0.00 | 94 | 1010.6 |
| 20260906095703 | 71 | 0 | 0.0 | 0.0 | 0.00 | 0.06 | 0.00 | 94 | 1010.6 |
| 20260906095603 | 71 | 0 | 0.0 | 0.0 | 0.00 | 0.06 | 0.00 | 94 | 1010.6 |
| 20260906095503 | 71 | 0 | 0.0 | 0.0 | 0.00 | 0.06 | 0.00 | 94 | 1010.7 |
| 20260906095404 | 71 | 0 | 0.0 | 0.0 | 0.00 | 0.06 | 0.00 | 94 | 1010.7 |
| 20260906095306 | 71 | 0 | 0.0 | 0.0 | 0.00 | 0.06 | 0.00 | 94 | 1010.7 |
| 20260906095204 | 71 | 0 | 0.0 | 0.0 | 0.00 | 0.06 | 0.00 | 94 | 1010.7 |
| 20260906095104 | 71 | 0 | 0.0 | 0.0 | 0.00 | 0.06 | 0.00 | 94 | 1010.7 |
| 20260906095017 | 71 | 0 | 0.0 | 0.0 | 0.00 | 0.06 | 0.00 | 94 | 1010.7 |
| 20260906094903 | 71 | 0 | 0.0 | 0.0 | 0.00 | 0.06 | 0.00 | 94 | 1010.7 |
| 20260906094717 | 71 | 0 | 0.0 | 0.0 | 0.00 | 0.06 | 0.00 | 94 | 1010.6 |
| 20260906094704 | 71 | 0 | 0.0 | 0.0 | 0.00 | 0.06 | 0.00 | 94 | 1010.7 |
| 20260906094603 | 71 | 0 | 0.0 | 0.0 | 0.00 | 0.06 | 0.00 | 94 | 1010.7 |
| 20260906094303 | 71 | 273 | 0.0 | 1.0 | 0.00 | 0.06 | 0.00 | 94 | 1010.8 |
| 20260906094204 | 71 | 273 | 0.0 | 1.0 | 0.00 | 0.06 | 0.00 | 94 | 1010.8 |
| 20260906094116 | 71 | 273 | 0.0 | 1.0 | 0.00 | 0.06 | 0.00 | 94 | 1010.8 |
| 20260906094003 | 72 | 273 | 0.0 | 1.0 | 0.00 | 0.06 | 0.00 | 94 | 1010.9 |
| 20260906093803 | 72 | 273 | 0.0 | 1.0 | 0.00 | 0.06 | 0.00 | 94 | 1010.9 |
| 20260906093703 | 72 | 273 | 0.0 | 1.0 | 0.00 | 0.06 | 0.00 | 94 | 1010.9 |
| 20260906093604 | 72 | 273 | 0.0 | 1.0 | 0.00 | 0.06 | 0.00 | 94 | 1010.9 |
| 20260906093503 | 72 | 273 | 0.0 | 1.0 | 0.00 | 0.06 | 0.00 | 94 | 1010.8 |
| 20260906093403 | 72 | 273 | 0.0 | 1.0 | 0.00 | 0.06 | 0.00 | 94 | 1010.8 |
| 20260906093303 | 72 | 273 | 0.0 | 1.0 | 0.00 | 0.06 | 0.00 | 94 | 1010.8 |
| 20260906093204 | 72 | 273 | 0.0 | 1.0 | 0.00 | 0.06 | 0.00 | 94 | 1010.8 |
| 20260906093103 | 72 | 273 | 0.0 | 1.0 | 0.00 | 0.06 | 0.00 | 94 | 1010.8 |
| 20260906093003 | 72 | 273 | 0.0 | 1.0 | 0.00 | 0.06 | 0.00 | 94 | 1010.8 |
| 20260906092903 | 72 | 273 | 0.0 | 1.0 | 0.00 | 0.06 | 0.00 | 94 | 1010.8 |
| 20260906092803 | 72 | 273 | 0.0 | 1.0 | 0.00 | 0.06 | 0.00 | 94 | 1010.8 |
| 20260906092703 | 72 | 273 | 0.0 | 1.0 | 0.00 | 0.06 | 0.00 | 94 | 1010.7 |
| 20260906092603 | 72 | 273 | 0.0 | 1.0 | 0.00 | 0.06 | 0.00 | 94 | 1010.7 |
| 20260906092503 | 72 | 273 | 0.0 | 1.0 | 0.00 | 0.06 | 0.00 | 94 | 1010.8 |
| 20260906092306 | 72 | 273 | 0.0 | 1.0 | 0.00 | 0.06 | 0.00 | 94 | 1010.7 |
| 20260906092203 | 72 | 273 | 0.0 | 1.0 | 0.00 | 0.06 | 0.00 | 94 | 1010.7 |
| 20260906092103 | 72 | 273 | 0.0 | 1.0 | 0.00 | 0.06 | 0.00 | 94 | 1010.6 |
| 20260906092004 | 72 | 273 | 0.0 | 1.0 | 0.00 | 0.06 | 0.00 | 94 | 1010.6 |
| 20260906091904 | 72 | 0 | 0.0 | 0.0 | 0.00 | 0.06 | 0.00 | 94 | 1010.6 |
| 20260906091803 | 72 | 0 | 0.0 | 0.0 | 0.00 | 0.06 | 0.00 | 94 | 1010.6 |
| 20260906091703 | 72 | 0 | 0.0 | 0.0 | 0.00 | 0.06 | 0.00 | 94 | 1010.6 |
| 20260906091604 | 72 | 0 | 0.0 | 0.0 | 0.00 | 0.06 | 0.00 | 94 | 1010.6 |
| 20260906091518 | 72 | 0 | 0.0 | 0.0 | 0.00 | 0.06 | 0.00 | 94 | 1010.6 |
| 20260906091504 | 72 | 273 | 0.0 | 1.0 | 0.00 | 0.06 | 0.00 | 94 | 1010.6 |
| 20260906091404 | 72 | 273 | 0.0 | 1.0 | 0.00 | 0.06 | 0.00 | 94 | 1010.5 |
| 20260906091203 | 72 | 273 | 0.0 | 1.0 | 0.00 | 0.06 | 0.00 | 94 | 1010.5 |
| 20260906091116 | 72 | 273 | 0.0 | 1.0 | 0.00 | 0.06 | 0.00 | 94 | 1010.5 |
| 20260906091104 | 72 | 273 | 0.0 | 1.0 | 0.00 | 0.06 | 0.00 | 94 | 1010.4 |
| 20260906091003 | 72 | 273 | 0.0 | 1.0 | 0.00 | 0.06 | 0.00 | 94 | 1010.4 |
| 20260906090804 | 72 | 273 | 0.0 | 1.0 | 0.00 | 0.06 | 0.00 | 94 | 1010.4 |
| 20260906090704 | 72 | 273 | 0.0 | 1.0 | 0.00 | 0.06 | 0.00 | 94 | 1010.5 |
| 20260906090603 | 72 | 273 | 0.0 | 1.0 | 0.00 | 0.06 | 0.00 | 94 | 1010.5 |
| 20260906090503 | 72 | 273 | 0.0 | 1.0 | 0.00 | 0.06 | 0.00 | 94 | 1010.5 |
| 20260906090403 | 72 | 273 | 0.0 | 1.0 | 0.00 | 0.06 | 0.00 | 94 | 1010.4 |
| 20260906090203 | 72 | 273 | 0.0 | 1.0 | 0.00 | 0.06 | 0.00 | 94 | 1010.4 |
| 20260906090104 | 72 | 273 | 0.0 | 1.0 | 0.00 | 0.06 | 0.00 | 94 | 1010.4 |
| 20260906090003 | 72 | 273 | 0.0 | 1.0 | 0.00 | 0.06 | 0.00 | 94 | 1010.4 |
| 20260906085903 | 72 | 273 | 0.0 | 1.0 | 0.00 | 0.06 | 0.00 | 94 | 1010.4 |
| 20260906085804 | 72 | 273 | 0.0 | 1.0 | 0.00 | 0.06 | 0.00 | 94 | 1010.3 |
| 20260906085603 | 72 | 273 | 0.0 | 1.0 | 0.00 | 0.06 | 0.00 | 94 | 1010.3 |
| 20260906085504 | 72 | 273 | 0.0 | 1.0 | 0.00 | 0.06 | 0.00 | 94 | 1010.3 |
| 20260906085403 | 72 | 273 | 0.0 | 1.0 | 0.00 | 0.06 | 0.00 | 94 | 1010.3 |
| 20260906085306 | 72 | 273 | 0.0 | 1.0 | 0.00 | 0.06 | 0.00 | 94 | 1010.2 |
| 20260906085203 | 72 | 273 | 0.0 | 1.0 | 0.00 | 0.06 | 0.00 | 94 | 1010.2 |
| 20260906085103 | 72 | 273 | 0.0 | 1.0 | 0.00 | 0.06 | 0.00 | 94 | 1010.2 |
| 20260906085004 | 72 | 273 | 0.0 | 1.0 | 0.00 | 0.06 | 0.00 | 94 | 1010.2 |
| 20260906084804 | 72 | 273 | 0.0 | 1.0 | 0.00 | 0.06 | 0.00 | 94 | 1010.2 |
| 20260906084704 | 72 | 273 | 0.0 | 1.0 | 0.00 | 0.06 | 0.00 | 94 | 1010.2 |
| 20260906084603 | 72 | 273 | 0.0 | 1.0 | 0.00 | 0.06 | 0.00 | 94 | 1010.2 |
| 20260906084504 | 72 | 273 | 0.0 | 1.0 | 0.00 | 0.06 | 0.00 | 94 | 1010.2 |
| 20260906084404 | 72 | 273 | 0.0 | 1.0 | 0.00 | 0.06 | 0.00 | 94 | 1010.2 |
| 20260906084303 | 72 | 273 | 0.0 | 1.0 | 0.00 | 0.06 | 0.00 | 94 | 1010.1 |
| 20260906084204 | 72 | 273 | 0.0 | 1.0 | 0.00 | 0.06 | 0.00 | 94 | 1010.1 |
| 20260906084103 | 72 | 273 | 0.0 | 1.0 | 0.00 | 0.06 | 0.00 | 94 | 1010.1 |
| 20260906083903 | 72 | 0 | 0.0 | 0.0 | 0.00 | 0.06 | 0.00 | 94 | 1010.1 |
| 20260906083803 | 72 | 273 | 0.0 | 1.0 | 0.00 | 0.06 | 0.00 | 94 | 1010.1 |
| 20260906083703 | 72 | 273 | 0.0 | 1.0 | 0.00 | 0.06 | 0.00 | 94 | 1010.1 |
| 20260906083604 | 72 | 273 | 0.0 | 1.0 | 0.00 | 0.06 | 0.00 | 94 | 1010.1 |
| 20260906083503 | 72 | 273 | 0.0 | 1.0 | 0.00 | 0.06 | 0.00 | 94 | 1010.1 |
| 20260906083403 | 72 | 273 | 0.0 | 1.0 | 0.00 | 0.06 | 0.00 | 94 | 1010.1 |
| 20260906083319 | 72 | 273 | 0.0 | 1.0 | 0.00 | 0.06 | 0.00 | 94 | 1010.2 |
| 20260906083203 | 72 | 273 | 0.0 | 1.0 | 0.00 | 0.06 | 0.00 | 94 | 1010.3 |
| 20260906083003 | 73 | 273 | 0.0 | 1.0 | 0.00 | 0.06 | 0.00 | 94 | 1010.3 |
| 20260906082904 | 73 | 273 | 0.0 | 1.0 | 0.00 | 0.06 | 0.00 | 94 | 1010.3 |
| 20260906082803 | 73 | 273 | 0.0 | 1.0 | 0.00 | 0.06 | 0.00 | 94 | 1010.4 |
| 20260906082716 | 73 | 273 | 0.0 | 1.0 | 0.00 | 0.06 | 0.00 | 94 | 1010.4 |
| 20260906082604 | 73 | 273 | 0.0 | 1.0 | 0.00 | 0.06 | 0.00 | 94 | 1010.3 |
| 20260906082518 | 73 | 273 | 0.0 | 1.0 | 0.00 | 0.06 | 0.00 | 94 | 1010.3 |
| 20260906082404 | 73 | 273 | 0.0 | 1.0 | 0.00 | 0.06 | 0.00 | 94 | 1010.3 |
| 20260906082317 | 73 | 273 | 0.0 | 1.0 | 0.00 | 0.06 | 0.00 | 94 | 1010.3 |
| 20260906082204 | 73 | 273 | 0.0 | 1.0 | 0.00 | 0.06 | 0.00 | 94 | 1010.3 |
| 20260906081903 | 73 | 273 | 0.0 | 1.0 | 0.00 | 0.06 | 0.00 | 94 | 1010.4 |
| 20260906081803 | 73 | 273 | 0.0 | 1.0 | 0.00 | 0.06 | 0.00 | 94 | 1010.4 |
| 20260906081604 | 73 | 273 | 0.0 | 1.0 | 0.00 | 0.06 | 0.00 | 94 | 1010.4 |
| 20260906081503 | 73 | 273 | 0.0 | 1.0 | 0.00 | 0.06 | 0.00 | 94 | 1010.3 |
| 20260906081403 | 73 | 0 | 0.0 | 0.0 | 0.00 | 0.06 | 0.00 | 94 | 1010.3 |
| 20260906081304 | 73 | 0 | 0.0 | 0.0 | 0.00 | 0.06 | 0.00 | 94 | 1010.3 |
| 20260906081204 | 73 | 0 | 0.0 | 0.0 | 0.00 | 0.06 | 0.00 | 94 | 1010.3 |
| 20260906081103 | 73 | 0 | 0.0 | 0.0 | 0.00 | 0.06 | 0.00 | 94 | 1010.3 |
| 20260906081004 | 73 | 0 | 0.0 | 0.0 | 0.00 | 0.06 | 0.00 | 94 | 1010.3 |
| 20260906080903 | 73 | 0 | 0.0 | 0.0 | 0.00 | 0.06 | 0.00 | 94 | 1010.2 |
| 20260906080818 | 73 | 0 | 0.0 | 0.0 | 0.00 | 0.06 | 0.00 | 94 | 1010.2 |
| 20260906080703 | 73 | 0 | 0.0 | 0.0 | 0.00 | 0.06 | 0.00 | 94 | 1010.2 |
| 20260906080617 | 73 | 0 | 0.0 | 0.0 | 0.00 | 0.06 | 0.00 | 94 | 1010.2 |
| 20260906080504 | 73 | 0 | 0.0 | 0.0 | 0.00 | 0.06 | 0.00 | 94 | 1010.3 |
| 20260906080418 | 73 | 0 | 0.0 | 0.0 | 0.00 | 0.06 | 0.00 | 94 | 1010.3 |
| 20260906080304 | 73 | 0 | 0.0 | 0.0 | 0.00 | 0.06 | 0.00 | 94 | 1010.3 |
| 20260906080103 | 73 | 273 | 0.0 | 1.0 | 0.00 | 0.06 | 0.00 | 94 | 1010.3 |
| 20260906080003 | 73 | 273 | 0.0 | 1.0 | 0.00 | 0.06 | 0.00 | 94 | 1010.3 |
| 20260906075904 | 73 | 273 | 0.0 | 1.0 | 0.00 | 0.06 | 0.00 | 94 | 1010.3 |
| 20260906075804 | 73 | 273 | 0.0 | 1.0 | 0.00 | 0.06 | 0.00 | 94 | 1010.3 |
| 20260906075704 | 73 | 273 | 0.0 | 1.0 | 0.00 | 0.06 | 0.00 | 94 | 1010.3 |
| 20260906075503 | 73 | 273 | 0.0 | 1.0 | 0.00 | 0.06 | 0.00 | 94 | 1010.3 |
| 20260906075403 | 73 | 273 | 0.0 | 1.0 | 0.00 | 0.06 | 0.00 | 94 | 1010.2 |
| 20260906075306 | 73 | 273 | 0.0 | 1.0 | 0.00 | 0.06 | 0.00 | 94 | 1010.3 |
| 20260906075203 | 73 | 273 | 0.0 | 1.0 | 0.00 | 0.06 | 0.00 | 94 | 1010.3 |
| 20260906075103 | 73 | 273 | 0.0 | 1.0 | 0.00 | 0.06 | 0.00 | 94 | 1010.3 |
| 20260906075004 | 73 | 273 | 0.0 | 1.0 | 0.00 | 0.06 | 0.00 | 94 | 1010.3 |
| 20260906074704 | 73 | 273 | 0.0 | 1.0 | 0.00 | 0.06 | 0.00 | 94 | 1010.4 |
| 20260906074603 | 73 | 273 | 0.0 | 1.0 | 0.00 | 0.06 | 0.00 | 94 | 1010.5 |
| 20260906074403 | 73 | 0 | 0.0 | 0.0 | 0.00 | 0.06 | 0.00 | 94 | 1010.5 |
| 20260906074304 | 73 | 0 | 0.0 | 0.0 | 0.00 | 0.06 | 0.00 | 94 | 1010.5 |
| 20260906074203 | 73 | 0 | 0.0 | 0.0 | 0.00 | 0.06 | 0.00 | 94 | 1010.5 |
| 20260906074104 | 73 | 0 | 0.0 | 0.0 | 0.00 | 0.06 | 0.00 | 94 | 1010.5 |
| 20260906074003 | 73 | 0 | 0.0 | 0.0 | 0.00 | 0.06 | 0.00 | 94 | 1010.5 |
| 20260906073904 | 73 | 0 | 0.0 | 0.0 | 0.00 | 0.06 | 0.00 | 94 | 1010.5 |
| 20260906073704 | 73 | 0 | 0.0 | 0.0 | 0.00 | 0.06 | 0.00 | 94 | 1010.5 |
| 20260906073603 | 73 | 0 | 0.0 | 0.0 | 0.00 | 0.06 | 0.00 | 94 | 1010.4 |
| 20260906073504 | 73 | 0 | 0.0 | 0.0 | 0.00 | 0.06 | 0.00 | 94 | 1010.5 |
| 20260906073404 | 73 | 0 | 0.0 | 0.0 | 0.00 | 0.06 | 0.00 | 94 | 1010.5 |
| 20260906073203 | 73 | 0 | 0.0 | 0.0 | 0.00 | 0.06 | 0.00 | 94 | 1010.5 |
| 20260906073104 | 73 | 0 | 0.0 | 0.0 | 0.00 | 0.06 | 0.00 | 94 | 1010.5 |
| 20260906073003 | 73 | 0 | 0.0 | 0.0 | 0.00 | 0.06 | 0.00 | 94 | 1010.6 |
| 20260906072803 | 73 | 0 | 0.0 | 0.0 | 0.00 | 0.06 | 0.00 | 94 | 1010.5 |
| 20260906072704 | 73 | 0 | 0.0 | 0.0 | 0.00 | 0.06 | 0.00 | 94 | 1010.6 |
| 20260906072603 | 73 | 0 | 0.0 | 0.0 | 0.00 | 0.06 | 0.00 | 94 | 1010.6 |
| 20260906072503 | 73 | 0 | 0.0 | 0.0 | 0.00 | 0.06 | 0.00 | 94 | 1010.5 |
| 20260906072403 | 73 | 0 | 0.0 | 0.0 | 0.00 | 0.06 | 0.00 | 94 | 1010.5 |
| 20260906072305 | 73 | 0 | 0.0 | 0.0 | 0.00 | 0.06 | 0.00 | 94 | 1010.4 |
| 20260906072203 | 73 | 0 | 0.0 | 0.0 | 0.00 | 0.06 | 0.00 | 94 | 1010.5 |
| 20260906072103 | 73 | 0 | 0.0 | 0.0 | 0.00 | 0.06 | 0.00 | 94 | 1010.5 |
| 20260906072003 | 73 | 0 | 0.0 | 0.0 | 0.00 | 0.06 | 0.00 | 94 | 1010.4 |
| 20260906071904 | 73 | 0 | 0.0 | 0.0 | 0.00 | 0.06 | 0.00 | 94 | 1010.4 |
| 20260906071803 | 73 | 0 | 0.0 | 0.0 | 0.00 | 0.06 | 0.00 | 94 | 1010.4 |
| 20260906071704 | 73 | 0 | 0.0 | 0.0 | 0.00 | 0.06 | 0.00 | 94 | 1010.5 |
| 20260906071604 | 73 | 0 | 0.0 | 0.0 | 0.00 | 0.06 | 0.00 | 94 | 1010.5 |
| 20260906071503 | 73 | 0 | 0.0 | 0.0 | 0.00 | 0.06 | 0.00 | 94 | 1010.5 |
| 20260906071404 | 73 | 0 | 0.0 | 0.0 | 0.00 | 0.06 | 0.00 | 94 | 1010.5 |
| 20260906071304 | 73 | 0 | 0.0 | 0.0 | 0.00 | 0.06 | 0.00 | 94 | 1010.3 |
| 20260906071204 | 73 | 0 | 0.0 | 0.0 | 0.00 | 0.06 | 0.00 | 94 | 1010.3 |
| 20260906071103 | 73 | 0 | 0.0 | 0.0 | 0.00 | 0.06 | 0.00 | 94 | 1010.3 |
| 20260906071004 | 73 | 0 | 0.0 | 0.0 | 0.00 | 0.06 | 0.00 | 94 | 1010.4 |
| 20260906070903 | 73 | 0 | 0.0 | 0.0 | 0.00 | 0.06 | 0.00 | 94 | 1010.3 |
| 20260906070703 | 73 | 273 | 0.0 | 1.0 | 0.00 | 0.06 | 0.00 | 94 | 1010.3 |
| 20260906070603 | 73 | 273 | 0.0 | 1.0 | 0.00 | 0.06 | 0.00 | 94 | 1010.3 |
| 20260906070403 | 73 | 273 | 0.0 | 1.0 | 0.00 | 0.06 | 0.00 | 94 | 1010.3 |
| 20260906070303 | 73 | 273 | 0.0 | 1.0 | 0.00 | 0.06 | 0.00 | 94 | 1010.3 |
| 20260906070203 | 73 | 273 | 0.0 | 1.0 | 0.00 | 0.06 | 0.00 | 94 | 1010.3 |
| 20260906070003 | 73 | 273 | 0.0 | 1.0 | 0.00 | 0.06 | 0.00 | 94 | 1010.3 |
| 20260906065903 | 73 | 273 | 0.0 | 1.0 | 0.00 | 0.06 | 0.00 | 94 | 1010.3 |
| 20260906065803 | 73 | 273 | 0.0 | 1.0 | 0.00 | 0.06 | 0.00 | 94 | 1010.3 |
| 20260906065703 | 73 | 273 | 0.0 | 1.0 | 0.00 | 0.06 | 0.00 | 94 | 1010.3 |
| 20260906065604 | 73 | 273 | 0.0 | 1.0 | 0.00 | 0.06 | 0.00 | 94 | 1010.3 |
| 20260906065503 | 73 | 273 | 0.0 | 2.0 | 0.00 | 0.06 | 0.00 | 94 | 1010.3 |
| 20260906065403 | 73 | 273 | 0.0 | 2.0 | 0.00 | 0.06 | 0.00 | 94 | 1010.3 |
| 20260906065305 | 73 | 273 | 0.0 | 2.0 | 0.00 | 0.06 | 0.00 | 94 | 1010.3 |
| 20260906065203 | 73 | 273 | 0.0 | 2.0 | 0.00 | 0.06 | 0.00 | 94 | 1010.2 |
| 20260906065104 | 73 | 273 | 0.0 | 2.0 | 0.00 | 0.06 | 0.00 | 94 | 1010.3 |
| 20260906065003 | 73 | 273 | 0.0 | 2.0 | 0.00 | 0.06 | 0.00 | 94 | 1010.3 |
| 20260906064903 | 73 | 273 | 0.0 | 2.0 | 0.00 | 0.06 | 0.00 | 94 | 1010.3 |
| 20260906064704 | 73 | 273 | 0.0 | 2.0 | 0.00 | 0.06 | 0.00 | 94 | 1010.3 |
| 20260906064604 | 73 | 273 | 0.0 | 2.0 | 0.00 | 0.06 | 0.00 | 94 | 1010.3 |
| 20260906064503 | 73 | 273 | 0.0 | 2.0 | 0.00 | 0.06 | 0.00 | 94 | 1010.3 |
| 20260906064403 | 73 | 273 | 0.0 | 1.0 | 0.00 | 0.06 | 0.00 | 94 | 1010.3 |
| 20260906064303 | 73 | 0 | 0.0 | 0.0 | 0.00 | 0.06 | 0.00 | 94 | 1010.3 |
| 20260906064203 | 73 | 0 | 0.0 | 0.0 | 0.00 | 0.06 | 0.00 | 94 | 1010.3 |
| 20260906064103 | 73 | 0 | 0.0 | 0.0 | 0.00 | 0.06 | 0.00 | 94 | 1010.3 |
| 20260906064004 | 73 | 0 | 0.0 | 0.0 | 0.00 | 0.06 | 0.00 | 94 | 1010.3 |
| 20260906063903 | 73 | 0 | 0.0 | 0.0 | 0.00 | 0.06 | 0.00 | 94 | 1010.3 |
| 20260906063803 | 73 | 0 | 0.0 | 0.0 | 0.00 | 0.06 | 0.00 | 94 | 1010.2 |
| 20260906063703 | 73 | 0 | 0.0 | 0.0 | 0.00 | 0.06 | 0.00 | 94 | 1010.2 |
| 20260906063603 | 73 | 0 | 0.0 | 0.0 | 0.00 | 0.06 | 0.00 | 93 | 1010.2 |
| 20260906063403 | 73 | 0 | 0.0 | 0.0 | 0.00 | 0.06 | 0.00 | 93 | 1010.3 |
| 20260906063304 | 73 | 0 | 0.0 | 0.0 | 0.00 | 0.06 | 0.00 | 93 | 1010.4 |
| 20260906063204 | 73 | 0 | 0.0 | 0.0 | 0.00 | 0.06 | 0.00 | 93 | 1010.4 |
| 20260906063104 | 73 | 0 | 0.0 | 0.0 | 0.00 | 0.06 | 0.00 | 93 | 1010.5 |
| 20260906063003 | 73 | 0 | 0.0 | 0.0 | 0.00 | 0.06 | 0.00 | 93 | 1010.5 |
| 20260906062903 | 73 | 0 | 0.0 | 0.0 | 0.00 | 0.06 | 0.00 | 93 | 1010.5 |
| 20260906062803 | 73 | 0 | 0.0 | 0.0 | 0.00 | 0.06 | 0.00 | 93 | 1010.6 |
| 20260906062703 | 73 | 0 | 0.0 | 0.0 | 0.00 | 0.06 | 0.00 | 93 | 1010.6 |
| 20260906062504 | 73 | 0 | 0.0 | 0.0 | 0.00 | 0.06 | 0.00 | 93 | 1010.6 |
| 20260906062404 | 73 | 0 | 0.0 | 0.0 | 0.00 | 0.06 | 0.00 | 93 | 1010.7 |
| 20260906062306 | 73 | 0 | 0.0 | 0.0 | 0.00 | 0.06 | 0.00 | 93 | 1010.7 |
| 20260906062203 | 73 | 0 | 0.0 | 0.0 | 0.00 | 0.06 | 0.00 | 93 | 1010.7 |
| 20260906062104 | 73 | 0 | 0.0 | 0.0 | 0.00 | 0.06 | 0.00 | 93 | 1010.7 |
| 20260906062018 | 73 | 0 | 0.0 | 0.0 | 0.00 | 0.06 | 0.00 | 93 | 1010.7 |
| 20260906062004 | 73 | 0 | 0.0 | 0.0 | 0.00 | 0.06 | 0.00 | 93 | 1010.8 |
| 20260906061704 | 73 | 0 | 0.0 | 0.0 | 0.00 | 0.06 | 0.00 | 93 | 1010.8 |
| 20260906061603 | 73 | 0 | 0.0 | 0.0 | 0.00 | 0.06 | 0.00 | 93 | 1010.8 |
| 20260906061503 | 73 | 0 | 0.0 | 0.0 | 0.00 | 0.06 | 0.00 | 93 | 1010.8 |
| 20260906061404 | 73 | 0 | 0.0 | 0.0 | 0.00 | 0.06 | 0.00 | 93 | 1010.8 |
| 20260906061304 | 73 | 0 | 0.0 | 0.0 | 0.00 | 0.06 | 0.00 | 93 | 1010.8 |
| 20260906061203 | 74 | 0 | 0.0 | 0.0 | 0.00 | 0.06 | 0.00 | 93 | 1010.8 |
| 20260906061104 | 74 | 0 | 0.0 | 0.0 | 0.00 | 0.06 | 0.00 | 93 | 1010.8 |
| 20260906061003 | 74 | 0 | 0.0 | 0.0 | 0.00 | 0.06 | 0.00 | 93 | 1010.7 |
| 20260906060904 | 74 | 0 | 0.0 | 0.0 | 0.00 | 0.06 | 0.00 | 93 | 1010.7 |
| 20260906060804 | 74 | 0 | 0.0 | 0.0 | 0.00 | 0.06 | 0.00 | 93 | 1010.7 |
| 20260906060704 | 74 | 0 | 0.0 | 0.0 | 0.00 | 0.06 | 0.00 | 93 | 1010.7 |
| 20260906060603 | 74 | 0 | 0.0 | 0.0 | 0.00 | 0.06 | 0.00 | 93 | 1010.7 |
| 20260906060503 | 74 | 0 | 0.0 | 0.0 | 0.00 | 0.06 | 0.00 | 93 | 1010.8 |
| 20260906060404 | 74 | 0 | 0.0 | 0.0 | 0.00 | 0.06 | 0.00 | 93 | 1010.8 |
| 20260906060203 | 74 | 0 | 0.0 | 0.0 | 0.00 | 0.06 | 0.00 | 93 | 1010.8 |
| 20260906060103 | 74 | 0 | 0.0 | 0.0 | 0.00 | 0.06 | 0.00 | 93 | 1010.8 |
| 20260906060003 | 74 | 0 | 0.0 | 0.0 | 0.00 | 0.06 | 0.00 | 93 | 1010.8 |
| 20260906055903 | 74 | 0 | 0.0 | 0.0 | 0.00 | 0.06 | 0.00 | 93 | 1010.8 |
| 20260906055803 | 74 | 0 | 0.0 | 0.0 | 0.00 | 0.06 | 0.00 | 93 | 1010.9 |
| 20260906055703 | 74 | 0 | 0.0 | 0.0 | 0.00 | 0.06 | 0.00 | 93 | 1010.9 |
| 20260906055603 | 74 | 0 | 0.0 | 0.0 | 0.00 | 0.06 | 0.00 | 93 | 1010.9 |
| 20260906055503 | 74 | 0 | 0.0 | 0.0 | 0.00 | 0.06 | 0.00 | 93 | 1010.9 |
| 20260906055405 | 74 | 0 | 0.0 | 0.0 | 0.00 | 0.06 | 0.00 | 93 | 1010.9 |
| 20260906055306 | 74 | 0 | 0.0 | 0.0 | 0.00 | 0.06 | 0.00 | 93 | 1010.9 |
| 20260906055204 | 74 | 282 | 0.0 | 2.0 | 0.00 | 0.06 | 0.00 | 93 | 1011.0 |
| 20260906055104 | 74 | 282 | 0.0 | 2.0 | 0.00 | 0.06 | 0.00 | 93 | 1011.0 |
| 20260906054904 | 74 | 282 | 0.0 | 2.0 | 0.00 | 0.06 | 0.00 | 93 | 1011.1 |
| 20260906054804 | 74 | 282 | 0.0 | 2.0 | 0.00 | 0.06 | 0.00 | 93 | 1011.1 |
| 20260906054703 | 74 | 282 | 0.0 | 2.0 | 0.00 | 0.06 | 0.00 | 93 | 1011.1 |
| 20260906054603 | 74 | 282 | 0.0 | 2.0 | 0.00 | 0.06 | 0.00 | 93 | 1011.1 |
| 20260906054504 | 74 | 282 | 0.0 | 2.0 | 0.00 | 0.06 | 0.00 | 93 | 1011.1 |
| 20260906054403 | 74 | 282 | 0.0 | 2.0 | 0.00 | 0.06 | 0.00 | 93 | 1011.1 |
| 20260906054303 | 74 | 282 | 0.0 | 2.0 | 0.00 | 0.06 | 0.00 | 93 | 1011.1 |
| 20260906054203 | 74 | 282 | 0.0 | 2.0 | 0.00 | 0.06 | 0.00 | 93 | 1011.1 |
| 20260906054103 | 74 | 282 | 0.0 | 2.0 | 0.00 | 0.06 | 0.00 | 93 | 1011.1 |
| 20260906053904 | 74 | 282 | 0.0 | 4.0 | 0.00 | 0.06 | 0.00 | 93 | 1011.1 |
| 20260906053803 | 74 | 281 | 0.0 | 4.0 | 0.00 | 0.06 | 0.00 | 93 | 1011.1 |
| 20260906053603 | 74 | 280 | 1.0 | 4.0 | 0.00 | 0.06 | 0.00 | 93 | 1011.2 |
| 20260906053503 | 74 | 279 | 1.0 | 4.0 | 0.00 | 0.06 | 0.00 | 93 | 1011.4 |
| 20260906053403 | 74 | 279 | 1.0 | 4.0 | 0.00 | 0.06 | 0.00 | 93 | 1011.4 |
| 20260906053303 | 74 | 287 | 1.0 | 4.0 | 0.00 | 0.06 | 0.00 | 93 | 1011.4 |
| 20260906053104 | 74 | 295 | 1.0 | 4.0 | 0.00 | 0.06 | 0.00 | 93 | 1011.5 |
| 20260906053018 | 74 | 300 | 1.0 | 4.0 | 0.00 | 0.06 | 0.00 | 93 | 1011.5 |
| 20260906053003 | 74 | 301 | 1.0 | 4.0 | 0.00 | 0.06 | 0.00 | 93 | 1011.5 |
| 20260906052903 | 74 | 308 | 1.0 | 4.0 | 0.00 | 0.06 | 0.00 | 93 | 1011.5 |
| 20260906052817 | 74 | 317 | 1.0 | 4.0 | 0.00 | 0.06 | 0.00 | 93 | 1011.5 |
| 20260906052704 | 74 | 323 | 1.0 | 4.0 | 0.00 | 0.06 | 0.00 | 93 | 1011.5 |
| 20260906052503 | 74 | 340 | 1.0 | 4.0 | 0.00 | 0.06 | 0.00 | 93 | 1011.5 |
| 20260906052403 | 74 | 349 | 1.0 | 4.0 | 0.00 | 0.06 | 0.00 | 93 | 1011.6 |
| 20260906052305 | 74 | 5 | 1.0 | 4.0 | 0.00 | 0.06 | 0.00 | 93 | 1011.6 |
| 20260906052203 | 74 | 17 | 1.0 | 4.0 | 0.00 | 0.06 | 0.00 | 93 | 1011.5 |
| 20260906052119 | 74 | 18 | 1.0 | 4.0 | 0.00 | 0.06 | 0.00 | 93 | 1011.5 |
| 20260906052104 | 74 | 18 | 1.0 | 3.0 | 0.00 | 0.06 | 0.00 | 93 | 1011.5 |
| 20260906052004 | 74 | 26 | 1.0 | 2.0 | 0.00 | 0.06 | 0.00 | 93 | 1011.5 |
| 20260906051704 | 74 | 26 | 0.0 | 2.0 | 0.00 | 0.06 | 0.00 | 93 | 1011.4 |
| 20260906051603 | 74 | 26 | 0.0 | 2.0 | 0.00 | 0.06 | 0.00 | 93 | 1011.5 |
| 20260906051503 | 74 | 26 | 0.0 | 2.0 | 0.00 | 0.06 | 0.00 | 93 | 1011.5 |
| 20260906051403 | 74 | 26 | 0.0 | 2.0 | 0.00 | 0.06 | 0.00 | 93 | 1011.5 |
| 20260906051203 | 74 | 26 | 0.0 | 2.0 | 0.00 | 0.06 | 0.00 | 93 | 1011.5 |
| 20260906051103 | 74 | 26 | 0.0 | 2.0 | 0.01 | 0.06 | 0.00 | 93 | 1011.7 |
| 20260906051004 | 74 | 26 | 0.0 | 2.0 | 0.01 | 0.06 | 0.00 | 93 | 1011.7 |
| 20260906050803 | 74 | 26 | 0.0 | 2.0 | 0.01 | 0.06 | 0.00 | 93 | 1011.7 |
| 20260906050703 | 74 | 26 | 0.0 | 2.0 | 0.01 | 0.06 | 0.00 | 93 | 1011.7 |
| 20260906050618 | 74 | 26 | 0.0 | 1.0 | 0.01 | 0.06 | 0.00 | 93 | 1011.8 |
| 20260906050503 | 74 | 26 | 0.0 | 1.0 | 0.01 | 0.06 | 0.00 | 93 | 1011.8 |
| 20260906050303 | 74 | 26 | 1.0 | 2.0 | 0.01 | 0.06 | 0.00 | 93 | 1011.8 |
| 20260906050203 | 74 | 25 | 1.0 | 2.0 | 0.01 | 0.06 | 0.00 | 93 | 1011.8 |
| 20260906050004 | 74 | 24 | 1.0 | 2.0 | 0.01 | 0.06 | 0.00 | 93 | 1011.7 |
| 20260906045903 | 74 | 23 | 1.0 | 2.0 | 0.01 | 0.06 | 0.06 | 93 | 1011.7 |
| 20260906045803 | 74 | 21 | 1.0 | 2.0 | 0.01 | 0.06 | 0.06 | 93 | 1011.7 |
| 20260906045703 | 74 | 20 | 1.0 | 2.0 | 0.01 | 0.06 | 0.06 | 93 | 1011.7 |
| 20260906045604 | 74 | 16 | 1.0 | 3.0 | 0.01 | 0.06 | 0.06 | 93 | 1011.7 |
| 20260906045403 | 74 | 13 | 1.0 | 3.0 | 0.01 | 0.06 | 0.06 | 93 | 1011.7 |
| 20260906045306 | 74 | 11 | 1.0 | 3.0 | 0.01 | 0.06 | 0.06 | 93 | 1011.7 |
| 20260906045203 | 74 | 10 | 1.0 | 3.0 | 0.01 | 0.06 | 0.06 | 93 | 1011.7 |
| 20260906045103 | 74 | 13 | 1.0 | 3.0 | 0.01 | 0.06 | 0.06 | 93 | 1011.7 |
| 20260906045003 | 74 | 16 | 1.0 | 3.0 | 0.01 | 0.06 | 0.06 | 93 | 1011.7 |
| 20260906044903 | 74 | 51 | 1.0 | 3.0 | 0.01 | 0.06 | 0.06 | 93 | 1011.8 |
| 20260906044804 | 74 | 161 | 1.0 | 3.0 | 0.01 | 0.06 | 0.06 | 93 | 1011.8 |
| 20260906044703 | 74 | 171 | 1.0 | 3.0 | 0.01 | 0.06 | 0.06 | 93 | 1011.9 |
| 20260906044604 | 74 | 177 | 1.0 | 3.0 | 0.01 | 0.06 | 0.06 | 93 | 1011.9 |
| 20260906044503 | 74 | 178 | 1.0 | 3.0 | 0.01 | 0.06 | 0.06 | 93 | 1011.9 |
| 20260906044404 | 74 | 179 | 1.0 | 3.0 | 0.01 | 0.06 | 0.06 | 93 | 1011.9 |
| 20260906044104 | 74 | 180 | 1.0 | 3.0 | 0.01 | 0.06 | 0.06 | 93 | 1012.0 |
| 20260906044004 | 74 | 180 | 1.0 | 3.0 | 0.01 | 0.06 | 0.06 | 93 | 1012.0 |
| 20260906043803 | 74 | 180 | 1.0 | 3.0 | 0.01 | 0.06 | 0.06 | 93 | 1011.9 |
| 20260906043703 | 74 | 180 | 1.0 | 3.0 | 0.01 | 0.06 | 0.06 | 93 | 1011.9 |
| 20260906043604 | 74 | 180 | 1.0 | 3.0 | 0.01 | 0.06 | 0.06 | 93 | 1011.9 |
| 20260906043503 | 74 | 180 | 1.0 | 3.0 | 0.01 | 0.06 | 0.06 | 93 | 1011.9 |
| 20260906043403 | 74 | 180 | 1.0 | 3.0 | 0.01 | 0.06 | 0.06 | 93 | 1011.8 |
| 20260906043303 | 74 | 180 | 1.0 | 3.0 | 0.01 | 0.06 | 0.06 | 93 | 1011.7 |
| 20260906043203 | 74 | 180 | 1.0 | 3.0 | 0.01 | 0.06 | 0.06 | 93 | 1011.7 |
| 20260906043104 | 74 | 180 | 1.0 | 3.0 | 0.01 | 0.06 | 0.06 | 93 | 1011.7 |
| 20260906043003 | 74 | 180 | 1.0 | 3.0 | 0.01 | 0.06 | 0.06 | 93 | 1011.7 |
| 20260906042903 | 74 | 180 | 0.0 | 2.0 | 0.01 | 0.06 | 0.06 | 93 | 1011.7 |
| 20260906042803 | 74 | 180 | 0.0 | 2.0 | 0.01 | 0.06 | 0.06 | 93 | 1011.7 |
| 20260906042704 | 74 | 180 | 0.0 | 2.0 | 0.01 | 0.06 | 0.06 | 93 | 1011.7 |
| 20260906042604 | 74 | 180 | 0.0 | 2.0 | 0.01 | 0.06 | 0.06 | 93 | 1011.6 |
| 20260906042503 | 74 | 180 | 0.0 | 1.0 | 0.01 | 0.06 | 0.06 | 93 | 1011.6 |
| 20260906042404 | 74 | 180 | 0.0 | 1.0 | 0.01 | 0.06 | 0.06 | 93 | 1011.6 |
| 20260906042306 | 74 | 180 | 0.0 | 1.0 | 0.01 | 0.06 | 0.06 | 93 | 1011.6 |
| 20260906042203 | 74 | 180 | 0.0 | 1.0 | 0.01 | 0.06 | 0.06 | 92 | 1011.6 |
| 20260906042104 | 74 | 180 | 0.0 | 1.0 | 0.01 | 0.06 | 0.06 | 92 | 1011.6 |
| 20260906042003 | 74 | 180 | 0.0 | 1.0 | 0.01 | 0.06 | 0.06 | 92 | 1011.7 |
| 20260906041803 | 74 | 180 | 0.0 | 1.0 | 0.01 | 0.06 | 0.06 | 92 | 1011.8 |
| 20260906041704 | 74 | 0 | 0.0 | 0.0 | 0.01 | 0.06 | 0.06 | 92 | 1011.8 |
| 20260906041603 | 74 | 180 | 0.0 | 1.0 | 0.01 | 0.06 | 0.06 | 92 | 1011.8 |
| 20260906041504 | 74 | 180 | 0.0 | 1.0 | 0.01 | 0.06 | 0.06 | 92 | 1011.8 |
| 20260906041403 | 74 | 180 | 0.0 | 1.0 | 0.01 | 0.06 | 0.06 | 92 | 1011.8 |
| 20260906041303 | 74 | 180 | 0.0 | 1.0 | 0.01 | 0.06 | 0.06 | 92 | 1011.8 |
| 20260906041203 | 74 | 180 | 0.0 | 1.0 | 0.01 | 0.06 | 0.06 | 92 | 1011.8 |
| 20260906041104 | 74 | 180 | 0.0 | 1.0 | 0.00 | 0.05 | 0.05 | 92 | 1011.9 |
| 20260906041003 | 74 | 180 | 0.0 | 1.0 | 0.00 | 0.05 | 0.05 | 92 | 1011.9 |
| 20260906040903 | 74 | 180 | 0.0 | 1.0 | 0.00 | 0.05 | 0.05 | 92 | 1011.9 |
| 20260906040804 | 74 | 180 | 0.0 | 2.0 | 0.00 | 0.05 | 0.05 | 92 | 1011.9 |
| 20260906040704 | 74 | 180 | 1.0 | 2.0 | 0.00 | 0.05 | 0.05 | 92 | 1011.9 |
| 20260906040603 | 74 | 180 | 1.0 | 2.0 | 0.00 | 0.05 | 0.05 | 92 | 1011.9 |
| 20260906040503 | 74 | 180 | 1.0 | 2.0 | 0.00 | 0.05 | 0.05 | 92 | 1011.8 |
| 20260906040404 | 74 | 180 | 1.0 | 2.0 | 0.00 | 0.05 | 0.05 | 92 | 1011.8 |
| 20260906040303 | 74 | 180 | 1.0 | 2.0 | 0.00 | 0.05 | 0.05 | 92 | 1011.7 |
| 20260906040204 | 74 | 180 | 1.0 | 2.0 | 0.00 | 0.05 | 0.05 | 92 | 1011.6 |
| 20260906040104 | 74 | 180 | 1.0 | 2.0 | 0.00 | 0.05 | 0.05 | 92 | 1011.6 |
| 20260906040003 | 74 | 180 | 1.0 | 2.0 | 0.00 | 0.05 | 0.05 | 92 | 1011.5 |
| 20260906035903 | 74 | 180 | 1.0 | 2.0 | 0.00 | 0.05 | 0.05 | 92 | 1011.5 |
| 20260906035803 | 74 | 180 | 1.0 | 2.0 | 0.00 | 0.05 | 0.05 | 92 | 1011.6 |
| 20260906035719 | 74 | 180 | 0.0 | 2.0 | 0.00 | 0.05 | 0.05 | 92 | 1011.6 |
| 20260906035704 | 74 | 180 | 0.0 | 2.0 | 0.00 | 0.05 | 0.05 | 92 | 1011.7 |
| 20260906035604 | 74 | 180 | 0.0 | 2.0 | 0.00 | 0.05 | 0.05 | 92 | 1011.7 |
| 20260906035306 | 74 | 180 | 1.0 | 3.0 | 0.00 | 0.05 | 0.05 | 92 | 1011.7 |
| 20260906035203 | 73 | 180 | 1.0 | 3.0 | 0.00 | 0.05 | 0.05 | 92 | 1011.7 |
| 20260906035103 | 73 | 180 | 1.0 | 3.0 | 0.00 | 0.05 | 0.05 | 92 | 1011.7 |
| 20260906035003 | 73 | 180 | 1.0 | 3.0 | 0.00 | 0.05 | 0.05 | 92 | 1011.7 |
| 20260906034803 | 73 | 180 | 1.0 | 3.0 | 0.00 | 0.05 | 0.05 | 92 | 1011.7 |
| 20260906034703 | 73 | 180 | 1.0 | 3.0 | 0.00 | 0.05 | 0.05 | 92 | 1011.6 |
| 20260906034603 | 73 | 180 | 1.0 | 3.0 | 0.00 | 0.05 | 0.05 | 92 | 1011.6 |
| 20260906034503 | 73 | 180 | 1.0 | 3.0 | 0.00 | 0.05 | 0.05 | 92 | 1011.6 |
| 20260906034403 | 73 | 184 | 2.0 | 4.0 | 0.00 | 0.05 | 0.05 | 92 | 1011.8 |
| 20260906034304 | 73 | 189 | 2.0 | 4.0 | 0.00 | 0.05 | 0.05 | 92 | 1011.8 |
| 20260906034203 | 73 | 194 | 1.0 | 4.0 | 0.00 | 0.05 | 0.05 | 92 | 1011.9 |
| 20260906034103 | 73 | 196 | 1.0 | 4.0 | 0.00 | 0.05 | 0.05 | 92 | 1011.9 |
| 20260906034004 | 73 | 200 | 1.0 | 4.0 | 0.00 | 0.05 | 0.05 | 92 | 1011.9 |
| 20260906033903 | 73 | 206 | 1.0 | 4.0 | 0.00 | 0.05 | 0.05 | 92 | 1011.9 |
| 20260906033803 | 73 | 211 | 1.0 | 4.0 | 0.00 | 0.05 | 0.05 | 92 | 1011.9 |
| 20260906033703 | 73 | 214 | 1.0 | 4.0 | 0.00 | 0.05 | 0.05 | 92 | 1011.8 |
| 20260906033504 | 73 | 240 | 1.0 | 4.0 | 0.00 | 0.05 | 0.05 | 93 | 1011.7 |
| 20260906033403 | 73 | 288 | 0.0 | 4.0 | 0.00 | 0.05 | 0.05 | 93 | 1011.5 |
| 20260906033303 | 73 | 313 | 0.0 | 2.0 | 0.00 | 0.05 | 0.05 | 93 | 1011.5 |
| 20260906033204 | 73 | 0 | 0.0 | 0.0 | 0.00 | 0.05 | 0.05 | 93 | 1011.1 |
| 20260906033103 | 73 | 0 | 0.0 | 0.0 | 0.00 | 0.05 | 0.05 | 93 | 1011.0 |
| 20260906033004 | 73 | 0 | 0.0 | 0.0 | 0.00 | 0.05 | 0.05 | 93 | 1011.0 |
| 20260906032904 | 73 | 0 | 0.0 | 0.0 | 0.00 | 0.05 | 0.05 | 93 | 1011.0 |
| 20260906032703 | 73 | 0 | 0.0 | 0.0 | 0.00 | 0.05 | 0.05 | 92 | 1011.0 |
| 20260906032603 | 73 | 0 | 0.0 | 0.0 | 0.00 | 0.05 | 0.05 | 93 | 1010.9 |
| 20260906032503 | 73 | 0 | 0.0 | 0.0 | 0.00 | 0.05 | 0.05 | 93 | 1010.9 |
| 20260906032403 | 73 | 0 | 0.0 | 0.0 | 0.00 | 0.05 | 0.05 | 93 | 1010.9 |
| 20260906032306 | 73 | 0 | 0.0 | 0.0 | 0.00 | 0.05 | 0.05 | 93 | 1010.9 |
| 20260906032203 | 73 | 0 | 0.0 | 0.0 | 0.00 | 0.05 | 0.05 | 93 | 1010.8 |
| 20260906032103 | 73 | 0 | 0.0 | 0.0 | 0.00 | 0.05 | 0.05 | 92 | 1010.8 |
| 20260906032003 | 73 | 0 | 0.0 | 0.0 | 0.00 | 0.05 | 0.05 | 92 | 1010.8 |
| 20260906031803 | 73 | 0 | 0.0 | 0.0 | 0.00 | 0.05 | 0.05 | 92 | 1010.7 |
| 20260906031704 | 73 | 0 | 0.0 | 0.0 | 0.00 | 0.05 | 0.05 | 92 | 1010.6 |
| 20260906031604 | 73 | 313 | 0.0 | 1.0 | 0.00 | 0.05 | 0.05 | 92 | 1010.5 |
| 20260906031503 | 73 | 313 | 0.0 | 1.0 | 0.00 | 0.05 | 0.05 | 92 | 1010.5 |
| 20260906031403 | 73 | 313 | 0.0 | 1.0 | 0.00 | 0.05 | 0.05 | 92 | 1010.5 |
| 20260906031303 | 73 | 313 | 0.0 | 1.0 | 0.00 | 0.05 | 0.05 | 92 | 1010.5 |
| 20260906031103 | 73 | 313 | 0.0 | 1.0 | 0.00 | 0.05 | 0.05 | 92 | 1010.4 |
| 20260906031004 | 73 | 313 | 0.0 | 1.0 | 0.00 | 0.05 | 0.05 | 92 | 1010.4 |
| 20260906030904 | 73 | 313 | 0.0 | 1.0 | 0.00 | 0.05 | 0.05 | 92 | 1010.4 |
| 20260906030704 | 73 | 313 | 0.0 | 1.0 | 0.00 | 0.05 | 0.05 | 92 | 1010.4 |
| 20260906030603 | 73 | 313 | 0.0 | 1.0 | 0.00 | 0.05 | 0.05 | 92 | 1010.4 |
| 20260906030504 | 73 | 313 | 0.0 | 1.0 | 0.00 | 0.05 | 0.05 | 92 | 1010.4 |
| 20260906030403 | 73 | 313 | 0.0 | 1.0 | 0.00 | 0.05 | 0.05 | 92 | 1010.5 |
| 20260906030303 | 73 | 313 | 0.0 | 1.0 | 0.00 | 0.05 | 0.05 | 92 | 1010.4 |
| 20260906030203 | 73 | 313 | 0.0 | 1.0 | 0.00 | 0.05 | 0.05 | 92 | 1010.4 |
| 20260906030004 | 73 | 313 | 0.0 | 1.0 | 0.00 | 0.05 | 0.05 | 92 | 1010.5 |
| 20260906025903 | 73 | 313 | 0.0 | 2.0 | 0.00 | 0.05 | 0.05 | 92 | 1010.5 |
| 20260906025704 | 73 | 313 | 0.0 | 2.0 | 0.00 | 0.05 | 0.05 | 92 | 1010.6 |
| 20260906025603 | 73 | 313 | 0.0 | 2.0 | 0.00 | 0.05 | 0.05 | 92 | 1010.7 |
| 20260906025403 | 73 | 313 | 0.0 | 2.0 | 0.00 | 0.05 | 0.05 | 92 | 1010.7 |
| 20260906025306 | 73 | 313 | 0.0 | 2.0 | 0.00 | 0.05 | 0.05 | 92 | 1010.7 |
| 20260906025203 | 73 | 313 | 0.0 | 2.0 | 0.00 | 0.05 | 0.05 | 92 | 1010.7 |
| 20260906025118 | 73 | 313 | 0.0 | 2.0 | 0.00 | 0.05 | 0.05 | 92 | 1010.7 |
| 20260906025004 | 73 | 313 | 0.0 | 2.0 | 0.00 | 0.05 | 0.05 | 92 | 1010.7 |
| 20260906024703 | 73 | 313 | 0.0 | 1.0 | 0.00 | 0.05 | 0.05 | 92 | 1010.8 |
| 20260906024603 | 73 | 313 | 0.0 | 1.0 | 0.00 | 0.05 | 0.05 | 92 | 1010.7 |
| 20260906024403 | 73 | 313 | 0.0 | 1.0 | 0.00 | 0.05 | 0.05 | 92 | 1010.7 |
| 20260906024303 | 73 | 313 | 0.0 | 1.0 | 0.00 | 0.05 | 0.05 | 92 | 1010.6 |
| 20260906024217 | 73 | 313 | 0.0 | 1.0 | 0.00 | 0.05 | 0.05 | 92 | 1010.6 |
| 20260906024103 | 73 | 313 | 0.0 | 1.0 | 0.00 | 0.05 | 0.05 | 91 | 1010.5 |
| 20260906023803 | 73 | 313 | 0.0 | 1.0 | 0.00 | 0.05 | 0.05 | 91 | 1010.4 |
| 20260906023704 | 73 | 313 | 0.0 | 1.0 | 0.00 | 0.05 | 0.05 | 91 | 1010.4 |
| 20260906023603 | 73 | 313 | 0.0 | 1.0 | 0.00 | 0.05 | 0.05 | 91 | 1010.4 |
| 20260906023503 | 73 | 313 | 0.0 | 1.0 | 0.00 | 0.05 | 0.05 | 91 | 1010.4 |
| 20260906023303 | 73 | 313 | 0.0 | 1.0 | 0.00 | 0.05 | 0.05 | 91 | 1010.4 |
| 20260906023203 | 73 | 313 | 0.0 | 1.0 | 0.00 | 0.05 | 0.05 | 91 | 1010.3 |
| 20260906023104 | 73 | 313 | 0.0 | 1.0 | 0.00 | 0.05 | 0.05 | 91 | 1010.3 |
| 20260906023003 | 73 | 0 | 0.0 | 0.0 | 0.00 | 0.05 | 0.05 | 91 | 1010.1 |
| 20260906022904 | 73 | 313 | 0.0 | 1.0 | 0.00 | 0.05 | 0.05 | 91 | 1010.1 |
| 20260906022804 | 73 | 313 | 0.0 | 1.0 | 0.00 | 0.05 | 0.05 | 91 | 1010.1 |
| 20260906022703 | 73 | 313 | 0.0 | 1.0 | 0.00 | 0.05 | 0.05 | 91 | 1010.1 |
| 20260906022603 | 73 | 313 | 0.0 | 1.0 | 0.00 | 0.05 | 0.05 | 91 | 1010.1 |
| 20260906022504 | 73 | 313 | 0.0 | 1.0 | 0.00 | 0.05 | 0.05 | 91 | 1010.0 |
| 20260906022404 | 73 | 313 | 0.0 | 1.0 | 0.00 | 0.05 | 0.05 | 91 | 1010.0 |
| 20260906022306 | 73 | 313 | 0.0 | 1.0 | 0.00 | 0.05 | 0.05 | 91 | 1010.0 |
| 20260906022203 | 73 | 313 | 0.0 | 1.0 | 0.00 | 0.05 | 0.05 | 90 | 1010.1 |
| 20260906022103 | 73 | 313 | 0.0 | 1.0 | 0.00 | 0.05 | 0.05 | 90 | 1010.1 |
| 20260906021903 | 73 | 313 | 0.0 | 1.0 | 0.00 | 0.05 | 0.05 | 90 | 1010.0 |
| 20260906021804 | 73 | 313 | 0.0 | 1.0 | 0.00 | 0.05 | 0.05 | 90 | 1010.0 |
| 20260906021703 | 73 | 313 | 0.0 | 1.0 | 0.00 | 0.05 | 0.05 | 90 | 1009.9 |
| 20260906021603 | 73 | 313 | 0.0 | 1.0 | 0.00 | 0.05 | 0.05 | 90 | 1009.9 |
| 20260906021403 | 73 | 313 | 0.0 | 1.0 | 0.00 | 0.05 | 0.05 | 90 | 1009.9 |
| 20260906021303 | 73 | 313 | 0.0 | 1.0 | 0.00 | 0.05 | 0.05 | 90 | 1009.9 |
| 20260906021204 | 73 | 313 | 0.0 | 1.0 | 0.00 | 0.05 | 0.05 | 90 | 1009.9 |
| 20260906021103 | 73 | 313 | 0.0 | 1.0 | 0.00 | 0.05 | 0.05 | 90 | 1009.8 |
| 20260906021004 | 73 | 313 | 0.0 | 1.0 | 0.00 | 0.05 | 0.05 | 90 | 1009.8 |
| 20260906020904 | 73 | 313 | 0.0 | 1.0 | 0.00 | 0.05 | 0.05 | 90 | 1009.9 |
| 20260906020804 | 73 | 313 | 0.0 | 1.0 | 0.00 | 0.05 | 0.05 | 90 | 1009.9 |
| 20260906020704 | 73 | 313 | 0.0 | 1.0 | 0.00 | 0.05 | 0.05 | 90 | 1009.9 |
| 20260906020603 | 73 | 313 | 0.0 | 1.0 | 0.00 | 0.05 | 0.05 | 90 | 1009.9 |
| 20260906020403 | 73 | 313 | 0.0 | 1.0 | 0.00 | 0.05 | 0.05 | 90 | 1009.8 |
| 20260906020303 | 73 | 313 | 0.0 | 1.0 | 0.00 | 0.05 | 0.05 | 89 | 1009.8 |
| 20260906020203 | 73 | 313 | 0.0 | 1.0 | 0.00 | 0.05 | 0.05 | 89 | 1009.8 |
| 20260906020104 | 73 | 313 | 0.0 | 1.0 | 0.00 | 0.05 | 0.05 | 89 | 1009.7 |
| 20260906020004 | 73 | 313 | 0.0 | 1.0 | 0.00 | 0.05 | 0.05 | 89 | 1009.7 |
| 20260906015904 | 73 | 313 | 0.0 | 1.0 | 0.00 | 0.05 | 0.05 | 88 | 1009.5 |
| 20260906015803 | 73 | 313 | 0.0 | 1.0 | 0.00 | 0.05 | 0.05 | 88 | 1009.5 |
| 20260906015704 | 73 | 313 | 0.0 | 1.0 | 0.00 | 0.05 | 0.05 | 88 | 1009.5 |
| 20260906015603 | 73 | 313 | 0.0 | 1.0 | 0.00 | 0.05 | 0.05 | 88 | 1009.6 |
| 20260906015504 | 73 | 313 | 0.0 | 1.0 | 0.00 | 0.05 | 0.05 | 88 | 1009.6 |
| 20260906015403 | 73 | 313 | 0.0 | 1.0 | 0.00 | 0.05 | 0.05 | 88 | 1009.5 |
| 20260906015306 | 73 | 313 | 0.0 | 1.0 | 0.00 | 0.05 | 0.05 | 88 | 1009.4 |
| 20260906015203 | 73 | 313 | 0.0 | 1.0 | 0.00 | 0.05 | 0.05 | 88 | 1009.4 |
| 20260906015103 | 73 | 313 | 0.0 | 1.0 | 0.00 | 0.05 | 0.05 | 88 | 1009.3 |
| 20260906015004 | 73 | 313 | 0.0 | 1.0 | 0.00 | 0.05 | 0.05 | 88 | 1009.3 |
| 20260906014903 | 73 | 0 | 0.0 | 0.0 | 0.00 | 0.05 | 0.05 | 88 | 1009.3 |
| 20260906014803 | 73 | 0 | 0.0 | 0.0 | 0.00 | 0.05 | 0.05 | 88 | 1009.3 |
| 20260906014703 | 73 | 313 | 0.0 | 1.0 | 0.00 | 0.05 | 0.05 | 88 | 1009.3 |
| 20260906014503 | 73 | 313 | 0.0 | 1.0 | 0.00 | 0.05 | 0.05 | 88 | 1009.4 |
| 20260906014404 | 73 | 313 | 0.0 | 1.0 | 0.00 | 0.05 | 0.05 | 88 | 1009.5 |
| 20260906014303 | 73 | 313 | 0.0 | 1.0 | 0.00 | 0.05 | 0.05 | 88 | 1009.5 |
| 20260906014204 | 73 | 313 | 0.0 | 1.0 | 0.00 | 0.05 | 0.05 | 88 | 1009.5 |
| 20260906014118 | 73 | 313 | 0.0 | 1.0 | 0.00 | 0.05 | 0.05 | 88 | 1009.5 |
| 20260906014003 | 73 | 313 | 0.0 | 1.0 | 0.00 | 0.05 | 0.05 | 88 | 1009.5 |
| 20260906013803 | 74 | 313 | 0.0 | 1.0 | 0.00 | 0.05 | 0.05 | 87 | 1009.6 |
| 20260906013703 | 74 | 313 | 0.0 | 1.0 | 0.00 | 0.05 | 0.05 | 87 | 1009.6 |
| 20260906013603 | 74 | 313 | 0.0 | 1.0 | 0.00 | 0.05 | 0.05 | 87 | 1009.5 |
| 20260906013503 | 74 | 313 | 0.0 | 1.0 | 0.00 | 0.05 | 0.05 | 87 | 1009.5 |
| 20260906013404 | 74 | 313 | 0.0 | 1.0 | 0.00 | 0.05 | 0.05 | 87 | 1009.5 |
| 20260906013303 | 74 | 313 | 0.0 | 1.0 | 0.00 | 0.05 | 0.05 | 87 | 1009.5 |
| 20260906013204 | 74 | 313 | 0.0 | 1.0 | 0.00 | 0.05 | 0.05 | 87 | 1009.5 |
| 20260906013103 | 74 | 0 | 0.0 | 0.0 | 0.00 | 0.05 | 0.05 | 87 | 1009.5 |
| 20260906013003 | 74 | 0 | 0.0 | 0.0 | 0.00 | 0.05 | 0.05 | 87 | 1009.5 |
| 20260906012903 | 74 | 0 | 0.0 | 0.0 | 0.00 | 0.05 | 0.05 | 87 | 1009.5 |
| 20260906012803 | 74 | 313 | 0.0 | 1.0 | 0.00 | 0.05 | 0.05 | 87 | 1009.5 |
| 20260906012704 | 74 | 313 | 0.0 | 1.0 | 0.00 | 0.05 | 0.05 | 87 | 1009.5 |
| 20260906012603 | 74 | 313 | 0.0 | 1.0 | 0.00 | 0.05 | 0.05 | 87 | 1009.6 |
| 20260906012503 | 74 | 313 | 0.0 | 1.0 | 0.00 | 0.05 | 0.05 | 87 | 1009.6 |
| 20260906012403 | 74 | 313 | 0.0 | 1.0 | 0.00 | 0.05 | 0.05 | 87 | 1009.6 |
| 20260906012306 | 74 | 313 | 0.0 | 1.0 | 0.00 | 0.05 | 0.05 | 87 | 1009.7 |
| 20260906012203 | 74 | 313 | 0.0 | 1.0 | 0.00 | 0.05 | 0.05 | 87 | 1009.7 |
| 20260906012103 | 74 | 313 | 0.0 | 1.0 | 0.00 | 0.05 | 0.05 | 87 | 1009.7 |
| 20260906012004 | 74 | 313 | 0.0 | 1.0 | 0.00 | 0.05 | 0.05 | 87 | 1009.8 |
| 20260906011903 | 74 | 313 | 0.0 | 1.0 | 0.00 | 0.05 | 0.05 | 87 | 1009.8 |
| 20260906011803 | 74 | 313 | 0.0 | 1.0 | 0.00 | 0.05 | 0.05 | 87 | 1009.7 |
| 20260906011704 | 74 | 313 | 0.0 | 1.0 | 0.00 | 0.05 | 0.05 | 87 | 1009.6 |
| 20260906011604 | 74 | 313 | 0.0 | 1.0 | 0.00 | 0.05 | 0.05 | 87 | 1009.6 |
| 20260906011503 | 74 | 313 | 0.0 | 1.0 | 0.00 | 0.05 | 0.05 | 87 | 1009.6 |
| 20260906011403 | 74 | 313 | 0.0 | 1.0 | 0.00 | 0.05 | 0.05 | 86 | 1009.6 |
| 20260906011303 | 75 | 313 | 0.0 | 1.0 | 0.01 | 0.05 | 0.05 | 86 | 1009.7 |
| 20260906011203 | 75 | 313 | 0.0 | 1.0 | 0.01 | 0.05 | 0.05 | 86 | 1009.7 |
| 20260906011104 | 75 | 313 | 0.0 | 1.0 | 0.01 | 0.05 | 0.05 | 86 | 1009.7 |
| 20260906011003 | 75 | 313 | 0.0 | 1.0 | 0.02 | 0.05 | 0.05 | 85 | 1009.8 |
| 20260906010904 | 75 | 313 | 0.0 | 1.0 | 0.02 | 0.05 | 0.05 | 85 | 1009.8 |
| 20260906010804 | 75 | 313 | 0.0 | 1.0 | 0.02 | 0.05 | 0.05 | 84 | 1009.7 |
| 20260906010703 | 75 | 313 | 0.0 | 1.0 | 0.02 | 0.05 | 0.05 | 84 | 1009.7 |
| 20260906010604 | 76 | 313 | 0.0 | 1.0 | 0.02 | 0.05 | 0.05 | 84 | 1009.7 |
| 20260906010503 | 76 | 313 | 0.0 | 1.0 | 0.02 | 0.05 | 0.05 | 84 | 1009.6 |
| 20260906010403 | 76 | 313 | 0.0 | 1.0 | 0.02 | 0.05 | 0.05 | 83 | 1009.6 |
| 20260906010303 | 76 | 313 | 0.0 | 1.0 | 0.02 | 0.05 | 0.05 | 83 | 1009.6 |
| 20260906010203 | 76 | 313 | 0.0 | 1.0 | 0.02 | 0.05 | 0.05 | 83 | 1009.5 |
| 20260906010103 | 76 | 313 | 0.0 | 1.0 | 0.02 | 0.05 | 0.05 | 83 | 1009.5 |
| 20260906010003 | 76 | 313 | 0.0 | 1.0 | 0.02 | 0.05 | 0.05 | 83 | 1009.6 |
| 20260906005903 | 76 | 313 | 0.0 | 1.0 | 0.02 | 0.05 | 0.05 | 82 | 1009.6 |
| 20260906005803 | 76 | 313 | 0.0 | 1.0 | 0.02 | 0.05 | 0.05 | 83 | 1009.6 |
| 20260906005603 | 76 | 313 | 0.0 | 1.0 | 0.02 | 0.05 | 0.05 | 83 | 1009.6 |
| 20260906005503 | 77 | 313 | 0.0 | 1.0 | 0.02 | 0.05 | 0.05 | 82 | 1009.7 |
| 20260906005417 | 77 | 313 | 0.0 | 1.0 | 0.02 | 0.05 | 0.05 | 82 | 1009.7 |
| 20260906005306 | 77 | 313 | 0.0 | 2.0 | 0.02 | 0.05 | 0.05 | 82 | 1009.5 |
| 20260906005217 | 77 | 313 | 0.0 | 2.0 | 0.02 | 0.05 | 0.05 | 82 | 1009.4 |
| 20260906005103 | 77 | 313 | 0.0 | 2.0 | 0.02 | 0.05 | 0.05 | 81 | 1009.4 |
| 20260906004903 | 77 | 313 | 0.0 | 2.0 | 0.02 | 0.05 | 0.05 | 81 | 1009.5 |
| 20260906004803 | 77 | 313 | 0.0 | 2.0 | 0.02 | 0.05 | 0.05 | 81 | 1009.5 |
| 20260906004703 | 78 | 313 | 0.0 | 2.0 | 0.02 | 0.05 | 0.05 | 80 | 1009.5 |
| 20260906004603 | 78 | 313 | 0.0 | 2.0 | 0.02 | 0.05 | 0.05 | 80 | 1009.5 |
| 20260906004503 | 78 | 313 | 0.0 | 2.0 | 0.02 | 0.05 | 0.05 | 79 | 1009.5 |
| 20260906004404 | 78 | 313 | 0.0 | 2.0 | 0.02 | 0.05 | 0.05 | 79 | 1009.7 |
| 20260906004304 | 78 | 313 | 0.0 | 1.0 | 0.02 | 0.05 | 0.05 | 79 | 1009.7 |
| 20260906004203 | 78 | 313 | 0.0 | 1.0 | 0.02 | 0.05 | 0.05 | 78 | 1009.7 |
| 20260906004104 | 78 | 0 | 0.0 | 0.0 | 0.02 | 0.05 | 0.05 | 78 | 1009.7 |
| 20260906004003 | 79 | 0 | 0.0 | 0.0 | 0.02 | 0.05 | 0.05 | 78 | 1009.7 |
| 20260906003903 | 79 | 0 | 0.0 | 0.0 | 0.02 | 0.05 | 0.05 | 77 | 1009.7 |
| 20260906003804 | 79 | 313 | 0.0 | 1.0 | 0.02 | 0.05 | 0.05 | 77 | 1009.7 |
| 20260906003704 | 79 | 313 | 0.0 | 2.0 | 0.02 | 0.05 | 0.05 | 77 | 1009.8 |
| 20260906003603 | 80 | 313 | 0.0 | 2.0 | 0.02 | 0.05 | 0.05 | 76 | 1009.9 |
| 20260906003504 | 80 | 313 | 0.0 | 2.0 | 0.02 | 0.05 | 0.05 | 76 | 1009.9 |
| 20260906003403 | 80 | 313 | 0.0 | 2.0 | 0.02 | 0.05 | 0.05 | 76 | 1009.9 |
| 20260906003303 | 80 | 313 | 0.0 | 2.0 | 0.02 | 0.05 | 0.05 | 76 | 1010.0 |
| 20260906003203 | 81 | 313 | 0.0 | 2.0 | 0.02 | 0.05 | 0.05 | 75 | 1010.0 |
| 20260906003104 | 81 | 313 | 0.0 | 2.0 | 0.02 | 0.05 | 0.05 | 74 | 1010.1 |
| 20260906003004 | 81 | 313 | 0.0 | 2.0 | 0.02 | 0.05 | 0.05 | 74 | 1010.1 |
| 20260906002903 | 81 | 313 | 0.0 | 2.0 | 0.02 | 0.05 | 0.05 | 74 | 1010.1 |
| 20260906002803 | 81 | 313 | 0.0 | 2.0 | 0.02 | 0.05 | 0.05 | 74 | 1010.0 |
| 20260906002703 | 82 | 313 | 0.0 | 2.0 | 0.02 | 0.05 | 0.05 | 74 | 1010.0 |
| 20260906002603 | 82 | 313 | 0.0 | 2.0 | 0.02 | 0.05 | 0.05 | 73 | 1010.0 |
| 20260906002504 | 82 | 312 | 1.0 | 2.0 | 0.02 | 0.05 | 0.05 | 73 | 1010.0 |
| 20260906002403 | 82 | 310 | 0.0 | 2.0 | 0.02 | 0.05 | 0.05 | 73 | 1010.1 |
| 20260906002305 | 83 | 297 | 0.0 | 2.0 | 0.02 | 0.05 | 0.05 | 73 | 1010.1 |
| 20260906002204 | 83 | 277 | 1.0 | 3.0 | 0.02 | 0.05 | 0.05 | 73 | 1010.1 |
| 20260906002103 | 83 | 278 | 1.0 | 3.0 | 0.02 | 0.05 | 0.05 | 71 | 1010.0 |
| 20260906002003 | 84 | 277 | 1.0 | 3.0 | 0.02 | 0.05 | 0.05 | 70 | 1010.0 |
| 20260906001903 | 84 | 275 | 1.0 | 3.0 | 0.02 | 0.05 | 0.05 | 70 | 1010.0 |
| 20260906001804 | 84 | 276 | 1.0 | 3.0 | 0.02 | 0.05 | 0.05 | 70 | 1009.9 |
| 20260906001719 | 84 | 280 | 1.0 | 3.0 | 0.02 | 0.05 | 0.05 | 70 | 1009.9 |
| 20260906001703 | 84 | 283 | 1.0 | 3.0 | 0.02 | 0.05 | 0.05 | 70 | 1009.9 |
| 20260906001603 | 84 | 280 | 1.0 | 4.0 | 0.02 | 0.05 | 0.05 | 69 | 1009.9 |
| 20260906001403 | 85 | 275 | 2.0 | 6.0 | 0.02 | 0.05 | 0.05 | 69 | 1009.9 |
| 20260906001303 | 85 | 287 | 2.0 | 9.0 | 0.01 | 0.04 | 0.04 | 68 | 1010.0 |
| 20260906001208 | 85 | 295 | 2.0 | 9.0 | 0.01 | 0.04 | 0.04 | 68 | 1010.0 |
| 20260906001104 | 85 | 293 | 2.0 | 9.0 | 0.01 | 0.04 | 0.04 | 66 | 1010.1 |
| 20260906001004 | 85 | 299 | 2.0 | 9.0 | 0.00 | 0.03 | 0.03 | 65 | 1010.2 |
| 20260906000904 | 85 | 284 | 2.0 | 9.0 | 0.00 | 0.03 | 0.03 | 65 | 1010.2 |
| 20260906000804 | 85 | 272 | 2.0 | 9.0 | 0.00 | 0.03 | 0.03 | 65 | 1010.4 |
| 20260906000704 | 86 | 225 | 2.0 | 9.0 | 0.00 | 0.03 | 0.03 | 66 | 1010.4 |
| 20260906000603 | 86 | 233 | 2.0 | 9.0 | 0.00 | 0.03 | 0.03 | 66 | 1010.4 |
| 20260906000503 | 86 | 224 | 2.0 | 9.0 | 0.00 | 0.03 | 0.03 | 66 | 1010.3 |
| 20260906000404 | 86 | 225 | 1.0 | 9.0 | 0.00 | 0.03 | 0.03 | 69 | 1010.3 |
| 20260906000303 | 86 | 195 | 1.0 | 4.0 | 0.00 | 0.03 | 0.03 | 69 | 1010.3 |
| 20260906000205 | 86 | 185 | 1.0 | 4.0 | 0.00 | 0.03 | 0.03 | 70 | 1010.3 |
| 20260906000104 | 86 | 186 | 1.0 | 4.0 | 0.00 | 0.03 | 0.03 | 70 | 1010.3 |
| 20260906000004 | 86 | 185 | 1.0 | 4.0 | 0.00 | 0.03 | 0.03 | 70 | 1010.3 |
| 20260905235903 | 87 | 186 | 1.0 | 4.0 | 0.00 | 0.03 | 0.03 | 70 | 1010.3 |
| 20260905235803 | 87 | 190 | 1.0 | 4.0 | 0.00 | 0.03 | 0.03 | 70 | 1010.2 |
| 20260905235703 | 87 | 195 | 1.0 | 4.0 | 0.00 | 0.03 | 0.03 | 71 | 1010.0 |
| 20260905235618 | 87 | 191 | 1.0 | 4.0 | 0.00 | 0.03 | 0.03 | 71 | 1010.0 |
| 20260905235604 | 87 | 189 | 1.0 | 4.0 | 0.00 | 0.03 | 0.03 | 71 | 1010.0 |
| 20260905235503 | 87 | 188 | 1.0 | 4.0 | 0.00 | 0.03 | 0.03 | 71 | 1009.8 |
| 20260905235419 | 87 | 183 | 1.0 | 4.0 | 0.00 | 0.03 | 0.03 | 71 | 1009.8 |
| 20260905235306 | 87 | 179 | 1.0 | 4.0 | 0.00 | 0.03 | 0.03 | 70 | 1009.8 |
| 20260905235004 | 87 | 180 | 0.0 | 2.0 | 0.00 | 0.03 | 0.03 | 70 | 1009.7 |
| 20260905234903 | 87 | 290 | 0.0 | 2.0 | 0.00 | 0.03 | 0.03 | 71 | 1009.7 |
| 20260905234804 | 87 | 0 | 0.0 | 0.0 | 0.00 | 0.03 | 0.03 | 71 | 1009.6 |
| 20260905234704 | 87 | 0 | 0.0 | 0.0 | 0.00 | 0.03 | 0.03 | 71 | 1009.4 |
| 20260905234603 | 87 | 0 | 0.0 | 0.0 | 0.00 | 0.03 | 0.03 | 71 | 1009.4 |
| 20260905234555 | 87 | 0 | 0.0 | 0.0 | 0.00 | 0.03 | 0.03 | 71 | 1009.4 |
| 20260905234403 | 87 | 0 | 0.0 | 0.0 | 0.00 | 0.03 | 0.03 | 71 | 1009.3 |
| 20260905234304 | 87 | 0 | 0.0 | 0.0 | 0.00 | 0.03 | 0.03 | 70 | 1009.3 |
| 20260905234203 | 87 | 0 | 0.0 | 0.0 | 0.00 | 0.03 | 0.03 | 71 | 1009.2 |
| 20260905234105 | 87 | 0 | 0.0 | 0.0 | 0.00 | 0.03 | 0.03 | 71 | 1009.2 |
| 20260905234004 | 87 | 0 | 0.0 | 0.0 | 0.00 | 0.03 | 0.03 | 70 | 1009.2 |
| 20260905233924 | 87 | 0 | 0.0 | 0.0 | 0.00 | 0.03 | 0.03 | 70 | 1009.2 |
| 20260905233804 | 88 | 0 | 0.0 | 0.0 | 0.00 | 0.03 | 0.03 | 69 | 1009.3 |
| 20260905233703 | 87 | 0 | 0.0 | 0.0 | 0.00 | 0.03 | 0.03 | 69 | 1009.4 |
| 20260905233603 | 88 | 0 | 0.0 | 0.0 | 0.00 | 0.03 | 0.03 | 69 | 1009.4 |
| 20260905233503 | 88 | 0 | 0.0 | 0.0 | 0.00 | 0.03 | 0.03 | 68 | 1009.4 |
| 20260905233403 | 88 | 0 | 0.0 | 0.0 | 0.00 | 0.03 | 0.03 | 68 | 1009.3 |
| 20260905233303 | 88 | 0 | 0.0 | 0.0 | 0.00 | 0.03 | 0.03 | 68 | 1009.3 |
| 20260905233203 | 88 | 0 | 0.0 | 0.0 | 0.00 | 0.03 | 0.03 | 68 | 1009.1 |
| 20260905233003 | 88 | 0 | 0.0 | 0.0 | 0.00 | 0.03 | 0.03 | 69 | 1009.1 |
| 20260905232903 | 88 | 0 | 0.0 | 0.0 | 0.00 | 0.03 | 0.03 | 66 | 1009.0 |
| 20260905232804 | 88 | 0 | 0.0 | 0.0 | 0.00 | 0.03 | 0.03 | 66 | 1009.0 |
| 20260905232703 | 88 | 0 | 0.0 | 0.0 | 0.00 | 0.03 | 0.03 | 66 | 1009.0 |
| 20260905232603 | 88 | 0 | 0.0 | 0.0 | 0.00 | 0.03 | 0.03 | 66 | 1009.0 |
| 20260905232504 | 88 | 0 | 0.0 | 0.0 | 0.00 | 0.03 | 0.03 | 66 | 1009.0 |
| 20260905232403 | 88 | 0 | 0.0 | 0.0 | 0.00 | 0.03 | 0.03 | 66 | 1009.0 |
| 20260905232203 | 88 | 0 | 0.0 | 0.0 | 0.00 | 0.03 | 0.03 | 67 | 1009.0 |
| 20260905232103 | 88 | 0 | 0.0 | 0.0 | 0.00 | 0.03 | 0.03 | 67 | 1009.0 |
| 20260905232003 | 88 | 0 | 0.0 | 0.0 | 0.00 | 0.03 | 0.03 | 67 | 1009.0 |
| 20260905231904 | 88 | 0 | 0.0 | 0.0 | 0.00 | 0.03 | 0.03 | 67 | 1009.0 |
| 20260905231804 | 88 | 0 | 0.0 | 0.0 | 0.00 | 0.03 | 0.03 | 67 | 1009.0 |
| 20260905231704 | 88 | 0 | 0.0 | 0.0 | 0.00 | 0.03 | 0.03 | 67 | 1009.0 |
| 20260905231603 | 88 | 0 | 0.0 | 0.0 | 0.00 | 0.03 | 0.03 | 67 | 1009.0 |
| 20260905231503 | 88 | 0 | 0.0 | 0.0 | 0.00 | 0.03 | 0.03 | 68 | 1009.0 |
| 20260905231403 | 88 | 0 | 0.0 | 0.0 | 0.00 | 0.03 | 0.03 | 68 | 1008.9 |
| 20260905231304 | 88 | 0 | 0.0 | 0.0 | 0.00 | 0.03 | 0.03 | 68 | 1008.9 |
| 20260905231203 | 88 | 0 | 0.0 | 0.0 | 0.00 | 0.03 | 0.03 | 68 | 1008.9 |
| 20260905231104 | 88 | 0 | 0.0 | 0.0 | 0.00 | 0.03 | 0.03 | 68 | 1008.9 |
| 20260905231003 | 88 | 0 | 0.0 | 0.0 | 0.00 | 0.03 | 0.03 | 68 | 1008.9 |
| 20260905230904 | 88 | 0 | 0.0 | 0.0 | 0.00 | 0.03 | 0.03 | 68 | 1008.9 |
| 20260905230803 | 88 | 0 | 0.0 | 0.0 | 0.00 | 0.03 | 0.03 | 67 | 1008.9 |
| 20260905230704 | 88 | 0 | 0.0 | 0.0 | 0.00 | 0.03 | 0.03 | 67 | 1008.9 |
| 20260905230604 | 88 | 0 | 0.0 | 0.0 | 0.00 | 0.03 | 0.03 | 67 | 1008.8 |
| 20260905230518 | 88 | 0 | 0.0 | 0.0 | 0.00 | 0.03 | 0.03 | 66 | 1008.8 |
| 20260905230503 | 88 | 0 | 0.0 | 0.0 | 0.00 | 0.03 | 0.03 | 67 | 1008.8 |
| 20260905230203 | 89 | 0 | 0.0 | 0.0 | 0.00 | 0.03 | 0.03 | 66 | 1008.9 |
| 20260905230104 | 89 | 0 | 0.0 | 0.0 | 0.00 | 0.03 | 0.03 | 66 | 1008.8 |
| 20260905230003 | 89 | 0 | 0.0 | 0.0 | 0.00 | 0.03 | 0.03 | 66 | 1008.8 |
| 20260905225904 | 89 | 0 | 0.0 | 0.0 | 0.00 | 0.03 | 0.03 | 65 | 1008.8 |
| 20260905225803 | 89 | 0 | 0.0 | 0.0 | 0.00 | 0.03 | 0.03 | 65 | 1008.8 |
| 20260905225703 | 89 | 0 | 0.0 | 0.0 | 0.00 | 0.03 | 0.03 | 65 | 1008.8 |
| 20260905225603 | 89 | 0 | 0.0 | 0.0 | 0.00 | 0.03 | 0.03 | 65 | 1008.9 |
| 20260905225504 | 89 | 0 | 0.0 | 0.0 | 0.00 | 0.03 | 0.03 | 65 | 1008.9 |
| 20260905225404 | 89 | 0 | 0.0 | 0.0 | 0.00 | 0.03 | 0.03 | 65 | 1008.9 |
| 20260905225305 | 89 | 0 | 0.0 | 0.0 | 0.00 | 0.03 | 0.03 | 64 | 1009.0 |
| 20260905225203 | 89 | 0 | 0.0 | 0.0 | 0.00 | 0.03 | 0.03 | 65 | 1009.0 |
| 20260905225104 | 89 | 0 | 0.0 | 0.0 | 0.00 | 0.03 | 0.03 | 64 | 1009.0 |
| 20260905225003 | 89 | 0 | 0.0 | 0.0 | 0.00 | 0.03 | 0.03 | 64 | 1009.1 |
| 20260905224903 | 89 | 0 | 0.0 | 0.0 | 0.00 | 0.03 | 0.03 | 64 | 1009.1 |
| 20260905224803 | 89 | 0 | 0.0 | 0.0 | 0.00 | 0.03 | 0.03 | 64 | 1009.1 |
| 20260905224703 | 89 | 0 | 0.0 | 0.0 | 0.00 | 0.03 | 0.03 | 64 | 1009.1 |
| 20260905224617 | 89 | 0 | 0.0 | 0.0 | 0.00 | 0.03 | 0.03 | 64 | 1009.1 |
| 20260905224503 | 89 | 0 | 0.0 | 0.0 | 0.00 | 0.03 | 0.03 | 64 | 1009.1 |
| 20260905224303 | 89 | 0 | 0.0 | 0.0 | 0.00 | 0.03 | 0.03 | 63 | 1009.1 |
| 20260905224203 | 89 | 0 | 0.0 | 0.0 | 0.00 | 0.03 | 0.03 | 63 | 1009.1 |
| 20260905224103 | 89 | 0 | 0.0 | 0.0 | 0.00 | 0.03 | 0.03 | 64 | 1009.2 |
| 20260905224003 | 89 | 0 | 0.0 | 0.0 | 0.00 | 0.03 | 0.03 | 64 | 1009.2 |
| 20260905223903 | 89 | 0 | 0.0 | 0.0 | 0.00 | 0.03 | 0.03 | 65 | 1009.2 |
| 20260905223804 | 89 | 0 | 0.0 | 0.0 | 0.00 | 0.03 | 0.03 | 63 | 1009.2 |
| 20260905223703 | 89 | 0 | 0.0 | 0.0 | 0.00 | 0.03 | 0.03 | 63 | 1009.2 |
| 20260905223603 | 89 | 0 | 0.0 | 0.0 | 0.00 | 0.03 | 0.03 | 63 | 1009.2 |
| 20260905223518 | 89 | 0 | 0.0 | 0.0 | 0.00 | 0.03 | 0.03 | 63 | 1009.2 |
| 20260905223504 | 89 | 0 | 0.0 | 0.0 | 0.00 | 0.03 | 0.03 | 62 | 1009.2 |
| 20260905223403 | 89 | 0 | 0.0 | 0.0 | 0.00 | 0.03 | 0.03 | 62 | 1009.2 |
| 20260905223103 | 89 | 0 | 0.0 | 0.0 | 0.00 | 0.03 | 0.03 | 64 | 1009.3 |
| 20260905223003 | 89 | 0 | 0.0 | 0.0 | 0.00 | 0.03 | 0.03 | 64 | 1009.2 |
| 20260905222903 | 89 | 0 | 0.0 | 0.0 | 0.00 | 0.03 | 0.03 | 62 | 1009.2 |
| 20260905222803 | 89 | 0 | 0.0 | 0.0 | 0.00 | 0.03 | 0.03 | 63 | 1009.3 |
| 20260905222704 | 89 | 0 | 0.0 | 0.0 | 0.00 | 0.03 | 0.03 | 62 | 1009.3 |
| 20260905222603 | 90 | 0 | 0.0 | 0.0 | 0.00 | 0.03 | 0.03 | 61 | 1009.3 |
| 20260905222503 | 90 | 0 | 0.0 | 0.0 | 0.00 | 0.03 | 0.03 | 62 | 1009.3 |
| 20260905222403 | 90 | 0 | 0.0 | 0.0 | 0.00 | 0.03 | 0.03 | 60 | 1009.3 |
| 20260905222306 | 90 | 0 | 0.0 | 0.0 | 0.00 | 0.03 | 0.03 | 60 | 1009.3 |
| 20260905222203 | 89 | 0 | 0.0 | 0.0 | 0.00 | 0.03 | 0.03 | 59 | 1009.4 |
| 20260905222103 | 89 | 0 | 0.0 | 0.0 | 0.00 | 0.03 | 0.03 | 61 | 1009.4 |
| 20260905222004 | 89 | 0 | 0.0 | 0.0 | 0.00 | 0.03 | 0.03 | 61 | 1009.3 |
| 20260905221903 | 89 | 0 | 0.0 | 0.0 | 0.00 | 0.03 | 0.03 | 61 | 1009.3 |
| 20260905221818 | 89 | 0 | 0.0 | 0.0 | 0.00 | 0.03 | 0.03 | 61 | 1009.3 |
| 20260905221803 | 89 | 0 | 0.0 | 0.0 | 0.00 | 0.03 | 0.03 | 62 | 1009.3 |
| 20260905221704 | 89 | 0 | 0.0 | 0.0 | 0.00 | 0.03 | 0.03 | 62 | 1009.3 |
| 20260905221617 | 89 | 0 | 0.0 | 0.0 | 0.00 | 0.03 | 0.03 | 61 | 1009.3 |
| 20260905221503 | 89 | 0 | 0.0 | 0.0 | 0.00 | 0.03 | 0.03 | 62 | 1009.3 |
| 20260905221319 | 89 | 0 | 0.0 | 0.0 | 0.00 | 0.03 | 0.03 | 61 | 1009.3 |
| 20260905221204 | 89 | 0 | 0.0 | 0.0 | 0.00 | 0.03 | 0.03 | 62 | 1009.4 |
| 20260905221118 | 89 | 0 | 0.0 | 0.0 | 0.00 | 0.03 | 0.03 | 64 | 1009.4 |
| 20260905221004 | 89 | 0 | 0.0 | 0.0 | 0.00 | 0.03 | 0.03 | 64 | 1009.4 |
| 20260905220719 | 88 | 0 | 0.0 | 0.0 | 0.00 | 0.03 | 0.03 | 63 | 1009.4 |
| 20260905220703 | 88 | 0 | 0.0 | 0.0 | 0.00 | 0.03 | 0.03 | 64 | 1009.4 |
| 20260905220604 | 88 | 0 | 0.0 | 0.0 | 0.00 | 0.03 | 0.03 | 64 | 1009.4 |
| 20260905220404 | 89 | 0 | 0.0 | 0.0 | 0.00 | 0.03 | 0.03 | 65 | 1009.4 |
| 20260905220303 | 89 | 0 | 0.0 | 0.0 | 0.00 | 0.03 | 0.03 | 64 | 1009.4 |
| 20260905220203 | 89 | 0 | 0.0 | 0.0 | 0.00 | 0.03 | 0.03 | 63 | 1009.4 |
| 20260905220118 | 89 | 0 | 0.0 | 0.0 | 0.00 | 0.03 | 0.03 | 64 | 1009.4 |
| 20260905220104 | 89 | 0 | 0.0 | 0.0 | 0.00 | 0.03 | 0.03 | 63 | 1009.4 |
| 20260905215804 | 89 | 0 | 0.0 | 0.0 | 0.00 | 0.03 | 0.03 | 63 | 1009.4 |
| 20260905215703 | 89 | 0 | 0.0 | 0.0 | 0.00 | 0.03 | 0.03 | 61 | 1009.4 |
| 20260905215603 | 88 | 0 | 0.0 | 0.0 | 0.00 | 0.03 | 0.03 | 63 | 1009.3 |
| 20260905215518 | 88 | 0 | 0.0 | 0.0 | 0.00 | 0.03 | 0.03 | 61 | 1009.3 |
| 20260905215404 | 88 | 0 | 0.0 | 0.0 | 0.00 | 0.03 | 0.03 | 62 | 1009.3 |
| 20260905215203 | 88 | 0 | 0.0 | 0.0 | 0.00 | 0.03 | 0.03 | 64 | 1009.3 |
| 20260905215103 | 88 | 0 | 0.0 | 0.0 | 0.00 | 0.03 | 0.03 | 65 | 1009.3 |
| 20260905215004 | 88 | 0 | 0.0 | 0.0 | 0.00 | 0.03 | 0.03 | 64 | 1009.3 |
| 20260905214903 | 88 | 0 | 0.0 | 0.0 | 0.00 | 0.03 | 0.03 | 63 | 1009.3 |
| 20260905214803 | 88 | 0 | 0.0 | 0.0 | 0.00 | 0.03 | 0.03 | 63 | 1009.3 |
| 20260905214703 | 88 | 0 | 0.0 | 0.0 | 0.00 | 0.03 | 0.03 | 63 | 1009.3 |
| 20260905214604 | 88 | 0 | 0.0 | 0.0 | 0.00 | 0.03 | 0.03 | 65 | 1009.3 |
| 20260905214503 | 88 | 0 | 0.0 | 0.0 | 0.00 | 0.03 | 0.03 | 68 | 1009.3 |
| 20260905214403 | 88 | 0 | 0.0 | 0.0 | 0.00 | 0.03 | 0.03 | 64 | 1009.4 |
| 20260905214317 | 88 | 0 | 0.0 | 0.0 | 0.00 | 0.03 | 0.03 | 66 | 1009.4 |
| 20260905214303 | 88 | 0 | 0.0 | 0.0 | 0.00 | 0.03 | 0.03 | 65 | 1009.4 |
| 20260905214203 | 88 | 0 | 0.0 | 0.0 | 0.00 | 0.03 | 0.03 | 63 | 1009.4 |
| 20260905214003 | 88 | 0 | 0.0 | 0.0 | 0.00 | 0.03 | 0.03 | 66 | 1009.4 |
| 20260905213904 | 88 | 0 | 0.0 | 0.0 | 0.00 | 0.03 | 0.03 | 66 | 1009.3 |
| 20260905213818 | 87 | 0 | 0.0 | 0.0 | 0.00 | 0.03 | 0.03 | 66 | 1009.3 |
| 20260905213803 | 87 | 0 | 0.0 | 0.0 | 0.00 | 0.03 | 0.03 | 66 | 1009.4 |
| 20260905213703 | 87 | 0 | 0.0 | 0.0 | 0.00 | 0.03 | 0.03 | 64 | 1009.4 |
| 20260905213619 | 87 | 0 | 0.0 | 0.0 | 0.00 | 0.03 | 0.03 | 65 | 1009.3 |
| 20260905213503 | 87 | 0 | 0.0 | 0.0 | 0.00 | 0.03 | 0.03 | 65 | 1009.3 |
| 20260905213418 | 87 | 353 | 0.0 | 1.0 | 0.00 | 0.03 | 0.03 | 64 | 1009.3 |
| 20260905213304 | 87 | 353 | 0.0 | 2.0 | 0.00 | 0.03 | 0.03 | 64 | 1009.4 |
| 20260905213103 | 87 | 353 | 0.0 | 2.0 | 0.00 | 0.03 | 0.03 | 67 | 1009.5 |
| 20260905213003 | 87 | 353 | 0.0 | 2.0 | 0.00 | 0.03 | 0.03 | 65 | 1009.5 |
| 20260905212903 | 87 | 353 | 1.0 | 2.0 | 0.00 | 0.03 | 0.03 | 68 | 1009.5 |
| 20260905212803 | 87 | 353 | 1.0 | 3.0 | 0.00 | 0.03 | 0.03 | 68 | 1009.6 |
| 20260905212704 | 87 | 353 | 1.0 | 3.0 | 0.00 | 0.03 | 0.03 | 65 | 1009.6 |
| 20260905212603 | 87 | 353 | 1.0 | 3.0 | 0.00 | 0.03 | 0.03 | 67 | 1009.5 |
| 20260905212504 | 87 | 352 | 1.0 | 3.0 | 0.00 | 0.03 | 0.03 | 67 | 1009.6 |
| 20260905212403 | 87 | 352 | 1.0 | 3.0 | 0.00 | 0.03 | 0.03 | 66 | 1009.6 |
| 20260905212306 | 87 | 352 | 1.0 | 3.0 | 0.00 | 0.03 | 0.03 | 70 | 1009.6 |
| 20260905212203 | 87 | 352 | 2.0 | 3.0 | 0.00 | 0.03 | 0.03 | 70 | 1009.6 |
| 20260905212019 | 87 | 353 | 2.0 | 3.0 | 0.00 | 0.03 | 0.03 | 66 | 1009.6 |
| 20260905212003 | 87 | 354 | 2.0 | 3.0 | 0.00 | 0.03 | 0.03 | 66 | 1009.6 |
| 20260905211917 | 87 | 355 | 2.0 | 3.0 | 0.00 | 0.03 | 0.03 | 66 | 1009.6 |
| 20260905211903 | 87 | 356 | 2.0 | 3.0 | 0.00 | 0.03 | 0.03 | 66 | 1009.6 |
| 20260905211818 | 88 | 358 | 2.0 | 3.0 | 0.00 | 0.03 | 0.03 | 67 | 1009.7 |
| 20260905211503 | 88 | 347 | 2.0 | 3.0 | 0.00 | 0.03 | 0.03 | 67 | 1009.7 |
| 20260905211403 | 88 | 346 | 2.0 | 3.0 | 0.00 | 0.03 | 0.03 | 66 | 1009.7 |
| 20260905211303 | 88 | 345 | 1.0 | 3.0 | 0.00 | 0.03 | 0.03 | 67 | 1009.7 |
| 20260905211217 | 88 | 344 | 1.0 | 3.0 | 0.00 | 0.03 | 0.03 | 67 | 1009.7 |
| 20260905211203 | 88 | 343 | 1.0 | 3.0 | 0.00 | 0.03 | 0.03 | 67 | 1009.5 |
| 20260905211118 | 88 | 341 | 1.0 | 3.0 | 0.00 | 0.03 | 0.03 | 67 | 1009.5 |
| 20260905211104 | 88 | 340 | 1.0 | 3.0 | 0.00 | 0.03 | 0.03 | 67 | 1009.5 |
| 20260905210804 | 87 | 226 | 0.0 | 2.0 | 0.00 | 0.03 | 0.03 | 71 | 1009.6 |
| 20260905210703 | 87 | 226 | 0.0 | 2.0 | 0.00 | 0.03 | 0.03 | 73 | 1009.6 |
| 20260905210604 | 87 | 226 | 0.0 | 2.0 | 0.00 | 0.03 | 0.03 | 70 | 1009.6 |
| 20260905210503 | 86 | 226 | 0.0 | 1.0 | 0.00 | 0.03 | 0.03 | 70 | 1009.7 |
| 20260905210404 | 86 | 226 | 0.0 | 1.0 | 0.00 | 0.03 | 0.03 | 71 | 1009.7 |
| 20260905210303 | 86 | 226 | 0.0 | 1.0 | 0.00 | 0.03 | 0.03 | 78 | 1009.7 |
| 20260905210203 | 85 | 226 | 0.0 | 1.0 | 0.01 | 0.03 | 0.03 | 80 | 1009.6 |
| 20260905210104 | 85 | 226 | 0.0 | 1.0 | 0.01 | 0.03 | 0.03 | 78 | 1009.6 |
| 20260905210003 | 85 | 226 | 0.0 | 2.0 | 0.01 | 0.03 | 0.03 | 79 | 1009.6 |
| 20260905205903 | 85 | 226 | 0.0 | 2.0 | 0.01 | 0.03 | 0.03 | 81 | 1009.6 |
| 20260905205803 | 85 | 226 | 0.0 | 2.0 | 0.01 | 0.03 | 0.03 | 79 | 1009.6 |
| 20260905205703 | 85 | 226 | 0.0 | 2.0 | 0.01 | 0.03 | 0.03 | 79 | 1009.7 |
| 20260905205619 | 85 | 226 | 1.0 | 2.0 | 0.01 | 0.03 | 0.03 | 82 | 1009.7 |
| 20260905205603 | 85 | 226 | 1.0 | 2.0 | 0.01 | 0.03 | 0.03 | 81 | 1009.7 |
| 20260905205503 | 85 | 226 | 1.0 | 2.0 | 0.01 | 0.03 | 0.03 | 79 | 1009.7 |
| 20260905205418 | 85 | 226 | 1.0 | 2.0 | 0.01 | 0.03 | 0.03 | 80 | 1009.7 |
| 20260905205306 | 85 | 225 | 1.0 | 2.0 | 0.02 | 0.03 | 0.03 | 80 | 1009.6 |
| 20260905205103 | 84 | 200 | 1.0 | 3.0 | 0.03 | 0.03 | 0.03 | 77 | 1009.6 |
| 20260905205018 | 85 | 191 | 1.0 | 3.0 | 0.03 | 0.03 | 0.03 | 77 | 1009.6 |
| 20260905205003 | 85 | 189 | 1.0 | 3.0 | 0.03 | 0.03 | 0.03 | 78 | 1009.6 |
| 20260905204903 | 85 | 174 | 1.0 | 3.0 | 0.03 | 0.03 | 0.03 | 79 | 1009.6 |
| 20260905204718 | 85 | 101 | 1.0 | 4.0 | 0.03 | 0.03 | 0.03 | 80 | 1009.7 |
| 20260905204703 | 85 | 96 | 1.0 | 4.0 | 0.03 | 0.03 | 0.03 | 80 | 1009.7 |
| 20260905204603 | 85 | 79 | 1.0 | 4.0 | 0.03 | 0.03 | 0.03 | 72 | 1009.7 |
| 20260905204517 | 85 | 62 | 2.0 | 4.0 | 0.03 | 0.03 | 0.03 | 72 | 1009.7 |
| 20260905204418 | 85 | 45 | 2.0 | 5.0 | 0.03 | 0.03 | 0.03 | 76 | 1009.9 |
| 20260905204403 | 84 | 43 | 2.0 | 5.0 | 0.03 | 0.03 | 0.03 | 79 | 1009.9 |
| 20260905204103 | 84 | 41 | 2.0 | 5.0 | 0.03 | 0.03 | 0.03 | 82 | 1009.9 |
| 20260905204003 | 83 | 41 | 1.0 | 5.0 | 0.03 | 0.03 | 0.03 | 80 | 1010.1 |
| 20260905203904 | 83 | 43 | 1.0 | 5.0 | 0.03 | 0.03 | 0.03 | 85 | 1010.2 |
| 20260905203803 | 82 | 45 | 1.0 | 5.0 | 0.03 | 0.03 | 0.03 | 83 | 1010.2 |
| 20260905203703 | 82 | 46 | 1.0 | 5.0 | 0.03 | 0.03 | 0.03 | 86 | 1010.3 |
| 20260905203603 | 82 | 48 | 1.0 | 5.0 | 0.03 | 0.03 | 0.03 | 86 | 1010.3 |
| 20260905203503 | 82 | 70 | 1.0 | 5.0 | 0.03 | 0.03 | 0.03 | 88 | 1010.3 |
| 20260905203404 | 82 | 122 | 0.0 | 3.0 | 0.03 | 0.03 | 0.03 | 89 | 1010.0 |
| 20260905203304 | 81 | 132 | 0.0 | 2.0 | 0.03 | 0.03 | 0.03 | 89 | 1010.0 |
| 20260905203203 | 81 | 132 | 0.0 | 2.0 | 0.03 | 0.03 | 0.03 | 90 | 1010.0 |
| 20260905203103 | 81 | 132 | 0.0 | 2.0 | 0.03 | 0.03 | 0.03 | 89 | 1009.8 |
| 20260905203003 | 81 | 132 | 0.0 | 2.0 | 0.03 | 0.03 | 0.03 | 89 | 1009.8 |
| 20260905202903 | 80 | 132 | 0.0 | 2.0 | 0.03 | 0.03 | 0.03 | 88 | 1009.7 |
| 20260905202803 | 80 | 132 | 1.0 | 2.0 | 0.03 | 0.03 | 0.03 | 88 | 1009.7 |
| 20260905202703 | 80 | 132 | 1.0 | 2.0 | 0.03 | 0.03 | 0.03 | 89 | 1009.7 |
| 20260905202503 | 80 | 132 | 1.0 | 2.0 | 0.03 | 0.03 | 0.03 | 87 | 1009.8 |
| 20260905202403 | 80 | 132 | 1.0 | 2.0 | 0.03 | 0.03 | 0.03 | 87 | 1009.8 |
| 20260905202306 | 80 | 132 | 1.0 | 2.0 | 0.03 | 0.03 | 0.03 | 88 | 1009.9 |
| 20260905202203 | 80 | 132 | 1.0 | 2.0 | 0.03 | 0.03 | 0.03 | 88 | 1009.9 |
| 20260905202104 | 80 | 132 | 1.0 | 2.0 | 0.03 | 0.03 | 0.03 | 88 | 1010.0 |
| 20260905202003 | 80 | 132 | 1.0 | 2.0 | 0.03 | 0.03 | 0.03 | 87 | 1010.0 |
| 20260905201903 | 80 | 132 | 1.0 | 3.0 | 0.03 | 0.03 | 0.03 | 87 | 1010.1 |
| 20260905201803 | 80 | 132 | 1.0 | 3.0 | 0.03 | 0.03 | 0.03 | 90 | 1010.3 |
| 20260905201703 | 80 | 132 | 1.0 | 3.0 | 0.03 | 0.03 | 0.03 | 90 | 1010.3 |
| 20260905201604 | 80 | 132 | 1.0 | 3.0 | 0.03 | 0.03 | 0.03 | 89 | 1010.4 |
| 20260905201503 | 80 | 132 | 1.0 | 3.0 | 0.03 | 0.03 | 0.03 | 89 | 1010.4 |
| 20260905201404 | 80 | 132 | 1.0 | 3.0 | 0.03 | 0.03 | 0.03 | 89 | 1010.4 |
| 20260905201303 | 80 | 132 | 1.0 | 3.0 | 0.03 | 0.03 | 0.03 | 90 | 1010.4 |
| 20260905201104 | 80 | 125 | 1.0 | 3.0 | 0.03 | 0.03 | 0.03 | 90 | 1010.2 |
| 20260905201004 | 79 | 123 | 1.0 | 3.0 | 0.03 | 0.03 | 0.03 | 89 | 1010.2 |
| 20260905200903 | 79 | 121 | 1.0 | 3.0 | 0.03 | 0.03 | 0.03 | 89 | 1010.2 |
| 20260905200803 | 79 | 118 | 1.0 | 3.0 | 0.03 | 0.03 | 0.03 | 89 | 1010.2 |
| 20260905200703 | 79 | 95 | 1.0 | 4.0 | 0.03 | 0.03 | 0.03 | 88 | 1010.2 |
| 20260905200616 | 80 | 91 | 1.0 | 4.0 | 0.03 | 0.03 | 0.03 | 87 | 1010.2 |
| 20260905200603 | 80 | 89 | 1.0 | 4.0 | 0.03 | 0.03 | 0.03 | 87 | 1010.2 |
| 20260905200503 | 80 | 94 | 1.0 | 4.0 | 0.03 | 0.03 | 0.03 | 87 | 1010.2 |
| 20260905200303 | 80 | 43 | 1.0 | 4.0 | 0.03 | 0.03 | 0.03 | 85 | 1010.2 |
| 20260905200203 | 80 | 193 | 1.0 | 4.0 | 0.02 | 0.02 | 0.02 | 85 | 1010.2 |
| 20260905200003 | 81 | 231 | 1.0 | 4.0 | 0.02 | 0.02 | 0.02 | 82 | 1010.3 |
| 20260905195903 | 82 | 239 | 1.0 | 4.0 | 0.02 | 0.02 | 0.02 | 81 | 1010.3 |
| 20260905195803 | 82 | 251 | 1.0 | 4.0 | 0.02 | 0.02 | 0.02 | 78 | 1010.4 |
| 20260905195704 | 83 | 248 | 1.0 | 4.0 | 0.02 | 0.02 | 0.02 | 77 | 1010.4 |
| 20260905195603 | 84 | 259 | 1.0 | 4.0 | 0.02 | 0.02 | 0.02 | 74 | 1010.4 |
| 20260905195503 | 84 | 320 | 2.0 | 9.0 | 0.02 | 0.02 | 0.02 | 72 | 1010.5 |
| 20260905195403 | 85 | 328 | 2.0 | 9.0 | 0.02 | 0.02 | 0.02 | 69 | 1010.5 |
| 20260905195306 | 86 | 334 | 2.0 | 9.0 | 0.01 | 0.01 | 0.01 | 68 | 1010.5 |
| 20260905195204 | 87 | 340 | 2.0 | 9.0 | 0.01 | 0.01 | 0.01 | 68 | 1010.5 |
| 20260905195104 | 88 | 348 | 2.0 | 9.0 | 0.00 | 0.00 | 0.00 | 68 | 1010.5 |
| 20260905195004 | 88 | 356 | 2.0 | 9.0 | 0.00 | 0.00 | 0.00 | 64 | 1010.5 |
| 20260905194903 | 88 | 358 | 2.0 | 9.0 | 0.00 | 0.00 | 0.00 | 63 | 1010.5 |
| 20260905194703 | 89 | 7 | 2.0 | 9.0 | 0.00 | 0.00 | 0.00 | 64 | 1010.7 |
| 20260905194603 | 90 | 12 | 2.0 | 9.0 | 0.00 | 0.00 | 0.00 | 67 | 1010.7 |
| 20260905194504 | 90 | 16 | 2.0 | 7.0 | 0.00 | 0.00 | 0.00 | 66 | 1010.6 |
| 20260905194404 | 90 | 18 | 2.0 | 7.0 | 0.00 | 0.00 | 0.00 | 65 | 1010.6 |
| 20260905194303 | 90 | 21 | 2.0 | 7.0 | 0.00 | 0.00 | 0.00 | 66 | 1010.6 |
| 20260905194104 | 90 | 21 | 2.0 | 7.0 | 0.00 | 0.00 | 0.00 | 63 | 1010.7 |
| 20260905194003 | 91 | 16 | 2.0 | 7.0 | 0.00 | 0.00 | 0.00 | 62 | 1010.6 |
| 20260905193903 | 92 | 16 | 2.0 | 7.0 | 0.00 | 0.00 | 0.00 | 60 | 1010.6 |
| 20260905193803 | 93 | 16 | 2.0 | 7.0 | 0.00 | 0.00 | 0.00 | 60 | 1010.6 |
| 20260905193704 | 93 | 15 | 2.0 | 7.0 | 0.00 | 0.00 | 0.00 | 59 | 1010.6 |
| 20260905193603 | 94 | 12 | 2.0 | 7.0 | 0.00 | 0.00 | 0.00 | 60 | 1010.6 |
| 20260905193503 | 94 | 13 | 2.0 | 7.0 | 0.00 | 0.00 | 0.00 | 58 | 1010.6 |
| 20260905193417 | 94 | 14 | 2.0 | 7.0 | 0.00 | 0.00 | 0.00 | 57 | 1010.6 |
| 20260905193403 | 94 | 14 | 2.0 | 7.0 | 0.00 | 0.00 | 0.00 | 56 | 1010.6 |
| 20260905193318 | 94 | 13 | 2.0 | 7.0 | 0.00 | 0.00 | 0.00 | 56 | 1010.6 |
| 20260905193303 | 94 | 14 | 2.0 | 7.0 | 0.00 | 0.00 | 0.00 | 56 | 1010.6 |
| 20260905193004 | 96 | 11 | 2.0 | 7.0 | 0.00 | 0.00 | 0.00 | 55 | 1010.6 |
| 20260905192903 | 96 | 11 | 1.0 | 7.0 | 0.00 | 0.00 | 0.00 | 54 | 1010.7 |
| 20260905192804 | 96 | 10 | 1.0 | 5.0 | 0.00 | 0.00 | 0.00 | 54 | 1010.7 |
| 20260905192703 | 97 | 12 | 1.0 | 4.0 | 0.00 | 0.00 | 0.00 | 52 | 1010.6 |
| 20260905192603 | 97 | 14 | 1.0 | 4.0 | 0.00 | 0.00 | 0.00 | 52 | 1010.6 |
| 20260905192503 | 97 | 13 | 1.0 | 3.0 | 0.00 | 0.00 | 0.00 | 52 | 1010.6 |
| 20260905192404 | 97 | 12 | 1.0 | 2.0 | 0.00 | 0.00 | 0.00 | 53 | 1010.6 |
| 20260905192318 | 98 | 15 | 1.0 | 3.0 | 0.00 | 0.00 | 0.00 | 51 | 1010.6 |
| 20260905192305 | 98 | 17 | 1.0 | 3.0 | 0.00 | 0.00 | 0.00 | 51 | 1010.6 |
| 20260905192216 | 98 | 26 | 1.0 | 3.0 | 0.00 | 0.00 | 0.00 | 51 | 1010.5 |
| 20260905192203 | 98 | 31 | 1.0 | 3.0 | 0.00 | 0.00 | 0.00 | 50 | 1010.5 |
| 20260905191903 | 98 | 42 | 2.0 | 3.0 | 0.00 | 0.00 | 0.00 | 51 | 1010.5 |
| 20260905191804 | 98 | 38 | 2.0 | 4.0 | 0.00 | 0.00 | 0.00 | 51 | 1010.5 |
| 20260905191703 | 98 | 33 | 2.0 | 4.0 | 0.00 | 0.00 | 0.00 | 51 | 1010.5 |
| 20260905191603 | 98 | 30 | 2.0 | 4.0 | 0.00 | 0.00 | 0.00 | 52 | 1010.5 |
| 20260905191504 | 97 | 20 | 2.0 | 5.0 | 0.00 | 0.00 | 0.00 | 51 | 1010.5 |
| 20260905191404 | 97 | 14 | 2.0 | 5.0 | 0.00 | 0.00 | 0.00 | 50 | 1010.6 |
| 20260905191304 | 97 | 12 | 2.0 | 5.0 | 0.00 | 0.00 | 0.00 | 50 | 1010.6 |
| 20260905191219 | 98 | 8 | 2.0 | 5.0 | 0.00 | 0.00 | 0.00 | 50 | 1010.6 |
| 20260905191204 | 98 | 7 | 2.0 | 5.0 | 0.00 | 0.00 | 0.00 | 50 | 1010.6 |
| 20260905191104 | 98 | 4 | 1.0 | 5.0 | 0.00 | 0.00 | 0.00 | 49 | 1010.7 |
| 20260905191018 | 98 | 6 | 1.0 | 5.0 | 0.00 | 0.00 | 0.00 | 49 | 1010.7 |
| 20260905190903 | 98 | 10 | 1.0 | 5.0 | 0.00 | 0.00 | 0.00 | 48 | 1010.7 |
| 20260905190817 | 98 | 13 | 1.0 | 5.0 | 0.00 | 0.00 | 0.00 | 49 | 1010.7 |
| 20260905190704 | 99 | 18 | 1.0 | 5.0 | 0.00 | 0.00 | 0.00 | 48 | 1010.8 |
| 20260905190504 | 99 | 34 | 1.0 | 4.0 | 0.00 | 0.00 | 0.00 | 49 | 1010.8 |
| 20260905190404 | 99 | 46 | 1.0 | 3.0 | 0.00 | 0.00 | 0.00 | 50 | 1010.8 |
| 20260905190318 | 99 | 49 | 1.0 | 3.0 | 0.00 | 0.00 | 0.00 | 51 | 1010.8 |
| 20260905190303 | 99 | 48 | 1.0 | 3.0 | 0.00 | 0.00 | 0.00 | 51 | 1010.8 |
| 20260905190203 | 98 | 45 | 1.0 | 3.0 | 0.00 | 0.00 | 0.00 | 49 | 1010.7 |
| 20260905190003 | 98 | 40 | 1.0 | 5.0 | 0.00 | 0.00 | 0.00 | 48 | 1010.7 |
| 20260905185904 | 98 | 35 | 2.0 | 5.0 | 0.00 | 0.00 | 0.00 | 49 | 1010.6 |
| 20260905185803 | 98 | 30 | 2.0 | 5.0 | 0.00 | 0.00 | 0.00 | 49 | 1010.6 |
| 20260905185703 | 98 | 25 | 2.0 | 5.0 | 0.00 | 0.00 | 0.00 | 49 | 1010.6 |
| 20260905185604 | 98 | 22 | 2.0 | 5.0 | 0.00 | 0.00 | 0.00 | 49 | 1010.6 |
| 20260905185503 | 98 | 17 | 2.0 | 5.0 | 0.00 | 0.00 | 0.00 | 50 | 1010.6 |
| 20260905185404 | 98 | 8 | 2.0 | 5.0 | 0.00 | 0.00 | 0.00 | 50 | 1010.6 |
| 20260905185306 | 99 | 2 | 2.0 | 5.0 | 0.00 | 0.00 | 0.00 | 50 | 1010.6 |
| 20260905185216 | 99 | 358 | 2.0 | 5.0 | 0.00 | 0.00 | 0.00 | 49 | 1010.6 |
| 20260905185204 | 99 | 357 | 2.0 | 5.0 | 0.00 | 0.00 | 0.00 | 49 | 1010.6 |
| 20260905185104 | 99 | 357 | 2.0 | 5.0 | 0.00 | 0.00 | 0.00 | 48 | 1010.6 |
| 20260905184904 | 100 | 353 | 2.0 | 4.0 | 0.00 | 0.00 | 0.00 | 49 | 1010.6 |